GFSCGP_700_temp_030.txt.gz
Temp
14 14 15 16 16 17 19 20 20 19 18 19 18 16 14 15 16 15 15 14 13 13 12 11 12 11 12 13 14 14 14 14 14 14 13 13 13 12 11 10 10 10 9 10
14 14 16 16 17 17 18 20 21 20 18 18 19 18 17 16 16 16 15 14 14 13 13 12 11 11 13 14 14 14 14 14 14 13 13 13 12 13 11 10 10 11 11 11
15 16 16 17 17 17 18 19 20 20 19 19 20 19 19 18 17 16 16 16 15 14 13 13 12 12 13 14 14 14 14 14 13 13 13 13 12 12 10 11 9 11 12 12
15 16 17 17 17 18 19 19 20 20 19 19 19 20 19 19 18 17 17 16 16 15 14 13 13 11 12 13 14 14 14 14 13 13 13 13 13 12 12 11 11 12 12 12
16 16 17 17 17 18 19 19 20 20 20 19 18 18 19 19 19 18 17 17 16 16 15 14 13 13 12 12 14 15 15 14 14 13 13 13 13 13 13 12 12 12 12 12
16 17 17 18 18 18 19 19 20 20 20 21 19 18 18 19 19 19 18 18 17 17 16 15 14 14 13 13 13 15 16 14 14 13 13 13 13 13 13 12 12 12 11 11
16 17 18 18 18 18 18 19 20 20 21 21 20 18 18 20 19 19 18 18 18 17 17 16 15 14 14 15 14 15 17 16 14 14 14 14 14 13 13 13 12 12 12 11
16 17 17 18 18 18 18 19 20 19 21 22 21 22 19 20 19 19 16 16 18 18 17 16 16 16 15 15 15 15 17 16 15 15 14 14 14 13 13 12 12 12 12 12
17 17 18 18 18 18 19 19 19 20 20 21 22 22 22 21 20 18 17 19 18 18 18 17 16 17 16 16 16 16 17 16 15 15 15 14 14 13 13 12 12 12 12 12
17 18 18 18 18 18 18 18 19 19 19 20 22 22 22 21 20 18 18 19 19 19 18 17 17 17 17 17 17 16 16 16 16 15 15 14 14 14 13 13 13 12 12 12
16 17 18 18 18 18 17 17 18 19 20 21 21 22 22 21 20 20 19 19 19 20 19 19 18 18 19 18 17 17 16 16 16 15 15 14 14 14 13 13 13 13 12 12
16 16 17 18 18 18 18 17 17 18 19 20 20 22 22 22 21 20 20 20 20 19 20 20 19 18 18 18 18 18 16 16 16 16 15 15 14 14 13 13 13 13 13 12
17 16 17 17 18 18 18 18 18 18 18 20 20 20 21 20 19 19 20 19 19 20 20 20 19 19 18 18 18 18 17 16 16 16 15 15 15 14 14 14 13 13 13 12
16 17 16 18 17 18 18 18 18 18 19 19 20 20 20 20 20 20 19 19 20 19 19 19 19 18 17 18 18 18 17 16 16 16 15 15 15 14 14 14 14 13 13 13
15 15 16 16 17 18 18 18 18 18 18 19 19 20 19 20 20 20 19 19 19 19 19 19 19 19 18 17 18 18 17 17 17 16 15 15 15 15 14 14 14 14 13 13
14 14 14 15 17 17 17 18 18 18 18 18 18 19 19 20 20 19 18 19 19 19 19 19 18 19 19 18 18 18 17 17 17 17 16 15 15 15 15 14 14 14 13 14
13 14 14 14 15 16 17 17 18 18 18 18 18 18 19 19 19 19 19 19 19 19 19 18 18 18 18 18 18 18 18 18 18 17 16 15 15 15 15 15 14 14 14 14
13 13 13 14 15 16 17 17 17 18 18 18 18 18 18 18 18 18 18 18 18 18 18 18 18 18 18 18 18 18 18 18 17 17 16 16 15 15 15 15 14 14 14 14
13 12 12 13 14 15 16 17 17 17 17 18 18 17 17 17 17 17 18 18 17 17 17 18 18 18 17 18 18 18 18 18 17 17 17 16 16 16 15 15 14 14 14 14
12 12 12 13 14 15 15 16 16 16 17 17 17 17 17 17 17 17 17 17 17 17 17 17 17 17 17 17 18 18 18 18 18 17 17 16 16 16 15 14 14 14 13 12
12 12 12 13 13 14 15 15 14 15 15 15 15 15 16 16 16 16 16 17 17 17 17 17 17 17 17 17 17 18 18 18 18 17 17 16 16 15 14 14 13 13 12 12
10 11 12 12 13 14 14 14 14 14 13 14 14 15 15 15 16 16 16 16 16 16 16 16 16 16 16 16 16 17 18 18 17 17 16 16 16 14 14 13 12 12 12 11
8 9 10 11 12 12 11 10 13 13 13 14 14 14 14 14 15 15 14 15 14 15 16 16 16 16 16 16 15 16 17 17 17 16 16 16 14 13 13 12 13 12 12 11
7 8 9 10 11 12 11 11 11 12 13 13 13 12 13 13 13 13 13 14 14 15 15 15 15 15 15 15 15 15 15 16 16 15 14 14 13 12 12 11 11 11 11 11
3 6 8 10 11 10 9 9 8 9 10 11 11 12 12 12 12 12 12 13 13 13 14 15 15 15 14 14 14 14 13 13 13 12 12 12 11 11 12 12 12 11 10 9
2 4 5 8 8 7 8 7 7 9 10 10 10 11 12 11 11 10 10 11 13 12 13 13 13 14 12 11 11 11 11 11 11 11 11 11 11 12 12 11 11 9 8 8

GFSCGP_700_temp_033.txt.gz
Temp
12 13 13 14 14 15 16 17 18 19 18 18 18 18 17 16 15 14 14 14 12 12 12 11 11 12 13 14 14 14 14 14 14 14 13 13 12 12 11 11 11 11 11 10
13 13 13 14 15 15 16 17 17 18 19 18 17 16 16 17 16 15 14 14 13 13 12 11 11 11 14 14 14 14 14 14 14 14 13 13 12 12 12 11 12 11 11 11
13 13 13 14 15 15 16 16 17 18 17 17 17 17 15 17 17 15 15 15 15 14 13 12 12 12 13 14 14 14 14 14 14 14 13 13 12 13 13 12 11 9 12 12
14 14 14 15 15 16 16 17 17 17 17 15 17 15 15 17 16 16 15 15 15 15 14 14 13 12 13 14 14 14 14 14 14 13 13 13 13 13 13 13 12 12 12 12
14 14 15 15 16 16 16 17 17 18 19 17 18 15 19 18 16 16 16 16 16 16 16 15 14 14 14 13 14 15 14 14 14 13 14 13 13 13 13 13 13 13 13 12
14 15 15 16 16 16 17 17 17 18 19 15 18 15 17 18 16 16 16 17 16 16 16 16 16 15 14 14 14 14 15 14 14 14 14 14 14 14 14 13 13 13 12 12
14 15 16 16 16 17 17 17 17 16 17 15 18 17 18 19 19 17 18 17 17 16 16 16 16 16 16 16 16 16 15 15 15 14 15 15 14 14 13 13 13 13 12 12
14 15 16 16 17 17 18 18 17 13 15 17 20 17 18 19 20 19 18 18 17 17 17 16 16 16 16 16 17 16 16 15 15 15 15 15 15 14 13 13 12 12 12 12
15 15 16 16 17 17 18 18 18 18 19 18 19 20 20 20 19 19 19 18 18 18 17 16 17 16 17 16 17 17 17 16 16 16 16 15 15 14 14 13 12 12 12 12
15 16 16 16 17 17 18 18 18 18 15 15 18 20 20 21 19 19 19 18 18 18 17 16 16 17 17 17 17 17 17 17 16 16 16 15 15 14 13 13 13 13 13 13
15 15 16 17 17 17 18 18 18 18 18 15 15 18 20 21 20 19 19 19 19 18 17 17 17 18 17 17 18 17 18 17 16 16 16 15 15 14 14 14 14 13 13 12
15 15 15 16 17 18 18 18 18 17 17 18 18 18 20 20 20 20 21 19 19 19 18 17 18 18 18 18 19 18 18 17 17 16 16 16 15 14 14 14 14 13 13 13
16 16 15 16 16 17 18 18 18 18 17 17 15 17 19 19 19 19 19 19 19 19 19 19 19 18 18 19 19 18 18 18 17 16 16 16 15 15 14 14 14 13 13 13
15 16 16 15 16 16 17 18 18 18 17 17 17 17 18 19 19 20 20 18 19 18 19 19 19 18 18 18 19 18 18 18 17 17 16 16 16 15 15 14 14 14 14 13
12 14 16 16 16 17 17 17 18 18 17 17 17 18 18 18 19 19 20 19 19 19 19 19 19 19 18 18 18 18 18 18 17 17 16 16 16 16 15 15 14 14 14 14
12 13 16 16 16 16 17 17 17 18 18 18 18 18 18 18 19 19 19 19 19 18 18 19 19 19 18 18 18 18 18 19 18 17 17 16 16 16 15 15 14 14 14 14
9 10 14 15 16 15 15 16 17 17 18 18 18 18 18 18 19 18 19 18 19 19 18 19 18 18 18 18 18 18 18 19 18 17 17 17 16 16 15 15 15 15 14 14
8 10 11 14 14 12 15 16 17 17 17 18 18 18 18 18 18 18 18 18 18 18 18 18 18 18 18 18 18 18 18 18 18 18 18 18 17 16 15 15 15 15 14 14
7 9 10 13 13 14 15 15 16 17 17 17 17 18 18 18 18 18 18 18 17 18 17 17 18 18 18 18 18 18 18 18 18 18 18 18 17 16 15 15 15 15 14 13
8 10 10 13 12 12 14 15 16 16 16 17 17 17 18 18 18 17 18 17 17 17 17 17 17 17 17 18 18 18 18 17 17 18 18 18 17 17 16 15 15 14 13 13
9 10 10 12 12 13 14 14 15 15 15 16 16 16 17 17 17 17 17 17 17 17 17 17 17 17 17 17 17 17 17 17 17 17 18 17 17 17 16 16 15 14 13 12
6 6 9 10 12 12 13 14 14 14 14 15 16 16 16 16 16 16 17 17 17 17 17 17 17 17 17 17 17 17 17 17 17 16 17 17 17 17 17 16 15 12 12 12
4 5 5 8 12 12 13 13 13 12 14 14 14 15 15 15 15 16 16 16 16 16 16 16 16 17 17 16 17 17 17 17 17 16 16 16 15 16 15 14 12 11 11 12
5 4 4 7 10 11 11 10 11 12 12 12 12 13 14 15 15 15 15 15 14 15 15 16 16 16 16 16 16 16 16 15 16 15 15 15 15 13 12 12 11 11 11 11
4 3 4 6 9 9 10 10 11 11 11 11 11 12 14 14 14 14 14 14 14 14 14 14 15 15 15 15 15 16 15 14 14 14 13 13 13 11 11 11 11 11 11 11
1 1 3 6 6 7 8 8 8 10 9 10 10 12 12 13 13 13 13 13 13 13 12 13 14 14 14 14 15 14 14 13 12 12 11 11 11 10 10 11 11 11 11 10

GFSCGP_700_temp_036.txt.gz
Temp
13 12 12 13 14 15 15 16 16 16 17 16 16 16 15 15 14 14 14 14 14 15 14 13 13 12 12 12 13 13 14 13 13 13 13 12 12 11 11 11 11 11 10 10
12 12 13 13 13 14 15 16 16 15 17 16 16 16 15 15 16 16 16 14 14 14 14 14 13 13 12 13 14 14 14 14 13 13 12 12 12 11 11 11 11 11 10 11
11 12 13 12 13 13 14 15 16 15 16 17 16 15 15 15 15 15 15 15 14 14 15 14 14 14 14 14 14 14 14 14 14 13 13 12 13 13 13 12 12 11 12 12
12 12 12 13 13 14 14 16 15 15 16 16 16 16 16 15 16 15 15 15 15 14 15 14 15 14 14 14 14 14 14 14 14 14 13 13 13 13 12 12 13 12 12 12
12 13 13 12 14 14 15 16 15 16 16 16 17 16 17 16 16 16 15 16 16 15 15 15 15 15 15 15 14 14 14 14 14 14 14 13 13 13 12 13 13 13 12 12
14 13 13 13 14 14 15 15 15 16 16 14 16 16 16 17 17 17 16 16 16 15 15 15 16 15 15 15 14 13 12 14 14 14 14 14 14 13 13 14 14 13 13 12
13 13 13 14 14 14 15 15 15 13 13 13 16 15 16 18 18 18 17 17 16 17 16 16 16 16 15 15 15 14 13 13 14 14 14 14 14 14 14 14 13 13 13 13
12 13 13 14 14 15 15 15 14 11 11 12 17 15 17 18 19 18 17 17 17 17 17 16 17 17 16 16 16 15 15 14 13 14 15 15 14 14 14 14 13 13 13 12
13 13 15 14 15 15 16 16 16 16 16 14 16 17 18 18 19 19 18 17 17 17 17 17 17 17 18 17 16 16 16 15 14 14 15 15 15 15 15 14 13 13 13 13
13 14 15 15 15 15 16 16 16 15 12 13 15 18 18 19 19 19 19 18 17 18 17 18 17 17 18 17 17 16 16 16 15 14 15 15 15 15 14 14 13 14 13 13
14 14 14 15 15 15 16 16 16 17 16 14 12 16 18 18 19 19 19 19 19 18 18 18 17 17 19 18 17 16 16 16 16 15 14 16 16 15 15 14 14 14 13 13
13 14 13 15 15 15 16 16 16 16 16 16 17 16 18 19 19 19 19 19 19 18 18 18 19 19 18 18 17 17 17 16 16 16 15 16 16 15 15 14 14 13 13 13
11 12 13 13 14 15 14 15 17 17 17 17 14 16 17 18 19 19 18 18 18 18 18 18 18 18 18 18 18 17 17 17 17 16 16 16 16 16 15 15 14 14 13 13
8 10 12 14 14 15 15 16 16 16 16 16 17 16 17 18 18 18 19 19 18 18 19 18 18 18 18 18 18 18 17 17 17 17 16 16 16 16 16 15 14 14 14 13
6 8 10 12 14 16 16 16 16 16 16 17 17 17 18 18 18 18 19 19 19 19 18 18 18 18 18 18 18 18 17 17 17 17 16 17 16 16 16 15 15 14 14 13
6 6 10 11 13 14 15 16 16 16 17 17 17 17 18 18 18 18 18 18 19 19 18 18 18 17 18 18 18 18 18 18 18 17 17 16 16 16 16 16 15 15 14 14
3 4 7 10 14 14 14 16 16 17 16 17 17 17 18 18 18 18 18 18 18 19 18 18 18 18 19 19 19 18 18 18 18 18 17 16 16 16 16 16 16 15 14 14
3 4 4 7 12 12 15 15 16 16 17 17 16 17 18 18 18 18 18 18 18 18 18 18 18 18 18 19 19 18 18 18 18 18 17 17 16 16 16 15 15 15 15 15
4 4 4 7 10 14 15 15 16 16 16 16 17 17 17 18 18 18 18 18 18 18 18 19 18 18 17 18 18 18 17 17 18 18 18 17 16 16 16 16 15 15 15 15
6 6 5 7 8 9 14 15 16 16 15 16 17 17 17 17 17 18 18 17 18 18 17 17 18 18 17 17 17 17 18 17 17 17 18 18 18 16 16 15 15 15 15 15
4 4 4 5 8 11 13 14 15 16 15 16 16 17 17 17 17 18 18 17 17 18 18 18 18 17 17 17 17 17 17 17 17 17 17 17 18 17 16 15 14 15 14 14
2 2 3 5 8 10 12 13 14 15 16 15 15 16 16 17 17 17 17 17 17 17 17 17 18 17 18 17 17 17 16 17 17 17 17 17 17 17 17 17 15 14 13 12
1 2 4 6 6 6 7 11 13 14 14 14 15 15 16 16 16 17 17 17 16 16 16 17 17 17 17 17 17 17 17 17 17 17 17 17 17 17 17 17 16 13 12 12
0 2 4 6 6 5 9 10 11 11 12 13 14 14 14 15 15 15 16 16 16 16 16 16 16 16 16 16 16 16 16 16 17 17 17 17 17 17 17 16 16 13 12 12
1 1 3 5 5 5 5 9 9 10 10 11 12 14 14 14 14 15 15 15 15 15 16 16 15 15 15 15 16 16 16 16 16 16 16 16 16 15 14 14 14 14 11 10
1 2 3 4 3 3 5 8 9 9 9 10 10 11 12 12 13 13 13 14 14 14 15 15 15 15 15 15 15 15 15 15 15 15 15 13 13 12 12 11 10 10 9 8

GFSCGP_700_temp_039.txt.gz
Temp
12 11 12 13 13 14 14 14 15 15 16 15 15 15 15 15 15 14 14 14 14 14 14 14 14 13 13 12 12 12 12 12 12 13 12 12 12 11 11 10 10 10 9 10
11 10 13 13 13 13 14 14 15 16 16 15 15 15 15 15 16 16 15 14 14 14 14 14 14 14 14 14 13 13 13 12 12 13 13 12 11 11 11 10 10 10 10 10
11 11 12 12 13 13 14 14 15 15 15 15 14 14 14 15 14 14 14 14 14 15 14 14 14 14 14 14 14 14 14 13 13 13 13 13 12 12 12 12 11 11 10 11
12 12 12 12 12 12 13 15 14 15 14 15 14 13 13 14 14 14 14 14 14 14 15 14 15 15 15 15 14 14 14 13 13 13 13 13 12 12 11 11 11 10 11 12
12 13 12 12 12 12 13 14 14 14 14 15 15 15 16 14 15 15 15 15 16 15 15 15 14 15 15 15 15 14 14 13 13 13 13 13 13 12 12 12 12 12 12 12
13 13 13 14 13 12 13 13 14 14 14 13 15 15 16 15 15 16 16 16 16 16 16 16 15 15 15 14 14 14 14 14 13 13 13 13 13 12 12 13 13 13 13 12
12 12 13 13 12 12 12 13 12 11 10 12 16 14 15 16 17 17 17 17 18 17 17 16 15 15 15 15 14 14 13 13 13 13 13 13 13 13 12 13 13 13 13 12
11 11 12 13 12 13 12 13 12 8 8 12 15 15 16 17 17 17 18 18 18 18 17 17 16 16 16 16 15 15 14 13 13 12 13 13 13 13 13 13 13 13 13 12
12 11 13 13 13 13 13 13 13 14 12 12 15 16 16 17 18 18 18 18 18 18 18 18 17 17 17 17 16 16 16 15 14 13 12 13 13 13 14 14 13 13 13 13
13 12 13 14 14 14 13 14 13 13 10 11 13 16 17 18 18 18 18 18 18 18 18 17 18 17 17 17 17 16 16 16 15 13 13 13 14 14 14 14 14 13 13 13
12 12 13 14 13 14 13 14 14 14 14 12 10 14 16 17 18 18 19 19 19 19 19 18 18 18 17 17 17 17 16 16 15 14 13 13 14 14 14 15 14 14 13 13
10 10 12 12 14 14 14 14 14 14 13 14 15 15 18 18 18 18 18 19 19 19 19 19 18 18 17 17 17 17 17 16 16 15 14 13 13 14 15 15 14 14 14 13
7 8 10 11 12 13 13 14 14 14 14 15 13 14 16 17 17 18 18 19 19 19 19 18 18 18 18 18 17 17 17 17 16 16 15 14 13 14 15 15 14 14 14 13
4 5 7 9 12 13 12 13 14 14 14 14 15 15 16 17 17 18 18 18 19 19 19 18 18 18 18 18 18 18 18 17 17 16 16 15 15 15 15 15 15 14 14 14
3 3 5 6 8 10 11 13 14 14 15 15 15 15 16 17 17 18 18 18 18 19 19 18 18 18 18 18 18 18 18 18 17 16 16 16 15 15 15 15 15 15 14 14
2 2 4 5 7 9 10 12 13 15 15 15 15 16 16 17 17 17 18 18 18 18 19 18 18 18 18 19 19 18 18 18 17 17 16 16 16 15 16 16 15 15 15 14
1 2 4 4 7 10 11 12 13 14 15 15 15 16 16 17 17 18 17 18 18 18 18 17 18 18 18 18 18 18 18 18 18 17 17 16 16 16 15 16 16 15 15 15
1 2 2 3 8 7 12 13 13 13 14 15 16 16 17 17 18 18 18 17 18 18 18 19 17 18 18 18 18 18 19 18 18 18 17 17 17 16 15 15 16 16 15 15
2 3 2 4 6 9 12 13 14 14 14 15 16 16 17 17 17 17 17 18 18 18 18 18 18 18 18 18 18 18 18 18 18 18 17 17 17 17 16 16 15 15 15 15
3 3 2 4 5 5 11 12 13 15 14 15 15 16 17 16 16 18 18 18 17 18 18 18 18 18 18 18 18 18 18 18 18 18 17 17 17 17 17 16 15 15 15 15
-0 -2 -1 2 4 6 9 11 12 13 15 15 16 16 16 17 17 17 18 18 17 17 18 18 18 17 18 18 18 18 18 18 18 18 17 18 17 17 17 16 15 15 14 14
-0 -1 -1 -0 4 5 8 10 11 12 14 15 15 16 17 17 17 17 17 18 18 17 17 17 18 18 18 17 18 18 18 17 17 17 17 17 17 17 17 17 16 15 14 14
-1 1 1 3 4 8 8 7 8 12 14 15 15 16 16 16 17 17 17 17 17 17 17 17 17 17 18 17 17 17 17 17 17 17 17 17 17 17 16 17 17 17 16 14
0 1 2 2 5 7 8 6 8 10 12 13 14 16 16 16 16 17 17 17 17 17 16 17 17 17 17 17 17 17 17 16 16 17 16 16 16 17 16 17 17 17 17 16
-1 -0 2 3 5 5 8 6 8 10 10 12 13 14 15 15 16 16 16 15 15 15 16 16 16 16 16 16 16 16 16 16 16 16 16 16 16 16 16 16 16 16 15 14
-1 -0 0 2 5 5 8 7 7 9 9 11 12 13 14 14 14 14 14 14 14 14 14 15 15 15 15 16 16 16 16 16 16 15 15 15 16 15 15 15 14 14 12 11

GFSCGP_700_temp_045.txt.gz
Temp
10 9 11 11 10 10 11 12 13 14 14 14 15 15 15 15 14 14 14 13 13 14 13 12 12 12 12 12 12 12 12 12 11 12 11 11 11 11 10 10 10 10 9 9
10 11 12 12 11 11 11 11 12 13 14 14 15 15 15 15 16 15 15 14 14 13 13 13 13 13 13 13 13 13 12 12 12 12 11 11 11 10 10 10 10 10 10 10
12 11 11 11 12 11 11 11 12 13 13 14 14 15 15 16 15 15 14 14 14 13 13 14 13 13 13 13 13 13 13 13 12 12 12 11 11 12 12 11 11 11 10 10
9 9 10 11 11 11 11 11 11 11 12 13 14 16 15 15 16 16 15 15 14 14 13 13 14 13 13 14 13 13 13 13 13 12 12 12 12 12 11 11 11 11 10 10
10 10 10 11 12 11 10 11 12 12 12 12 13 14 15 15 15 16 16 16 15 15 14 14 13 14 14 14 14 14 13 13 13 13 13 12 12 12 11 11 11 11 11 11
10 11 10 12 12 12 10 10 11 11 12 13 13 13 15 14 16 16 16 16 16 15 15 14 14 13 14 14 14 14 13 13 13 13 13 13 13 12 12 12 12 12 12 12
9 10 11 10 10 9 10 11 12 12 12 14 14 13 14 15 15 16 17 17 17 16 16 15 14 14 14 14 14 14 14 14 13 13 13 13 13 12 12 12 12 12 12 12
10 10 10 11 11 10 10 11 14 13 15 15 13 14 14 15 16 16 16 17 17 17 16 16 16 15 15 14 14 14 14 14 14 13 13 13 13 13 12 12 12 12 12 12
10 11 11 11 11 11 10 11 12 13 12 13 14 14 14 15 15 16 17 17 17 17 17 17 17 16 15 15 15 14 14 13 14 13 13 13 13 13 13 12 12 12 12 12
10 10 11 11 11 11 11 11 10 11 13 13 15 13 15 16 16 16 17 17 17 18 18 17 17 17 17 16 16 15 14 14 13 14 13 13 13 13 12 12 12 12 12 12
9 10 11 11 10 11 10 10 11 12 12 15 15 16 15 15 16 17 18 18 18 18 18 18 18 18 18 17 16 16 15 15 14 13 13 13 12 12 12 11 12 12 12 12
8 9 10 10 11 11 11 11 11 12 11 11 14 15 16 16 15 16 17 18 18 18 18 18 18 18 18 18 17 17 16 15 15 14 14 13 13 12 12 12 12 12 13 13
6 7 9 10 10 11 11 11 11 12 13 12 13 14 15 17 17 16 17 18 18 18 18 18 18 18 18 18 18 17 17 16 15 15 15 14 14 13 13 13 12 13 13 13
3 4 7 11 11 10 10 10 11 11 12 13 12 14 14 15 16 16 16 17 17 17 17 18 18 18 19 19 18 18 17 17 16 16 15 15 15 14 14 14 13 13 14 13
2 2 3 4 6 6 7 9 9 9 11 12 13 13 12 14 16 16 16 17 17 17 17 18 18 18 19 19 18 18 18 17 17 16 16 16 16 15 15 14 14 14 14 14
1 1 2 3 4 4 5 6 7 8 8 9 11 12 12 13 13 14 16 16 17 17 18 18 18 18 18 19 19 19 18 17 17 17 17 16 16 16 16 15 15 14 14 15
-1 0 1 3 3 4 6 7 7 8 9 9 10 11 12 13 13 13 14 15 16 17 17 17 17 18 18 18 19 19 18 18 17 17 17 17 17 17 17 16 16 15 15 15
-1 -1 -0 2 2 5 8 9 9 9 9 10 11 11 12 14 14 14 14 14 16 16 17 17 17 18 18 18 18 18 18 18 18 18 17 17 17 17 17 17 16 16 15 15
-0 -2 -0 2 3 5 6 6 8 9 9 10 11 12 12 13 14 14 15 15 16 16 17 17 17 18 18 18 18 18 18 18 18 18 18 18 18 17 17 17 17 16 16 16
-1 -2 -2 0 3 5 6 7 7 8 7 10 11 12 13 14 13 14 15 16 16 16 17 17 17 17 18 18 18 18 18 18 18 18 18 18 18 18 18 17 17 17 17 16
-3 -5 -4 -2 0 3 4 6 7 7 9 10 11 12 12 13 14 14 15 16 16 16 17 17 17 17 18 18 18 18 18 18 18 18 18 18 18 18 18 17 17 17 17 16
-3 -4 -4 -3 -1 0 4 5 5 7 8 9 10 11 12 13 14 14 15 16 16 16 16 17 17 17 17 18 18 18 19 18 18 17 18 18 18 18 18 17 17 16 16 14
-4 -3 -2 -2 -0 1 2 5 5 6 7 9 10 11 13 13 14 15 15 16 16 16 16 17 17 17 17 17 18 18 18 18 18 18 18 18 18 17 17 17 17 17 15 13
-5 -3 -3 -3 -1 -1 1 3 4 5 7 9 10 11 13 13 14 15 15 16 16 17 16 17 17 17 17 17 18 18 18 18 17 17 18 18 17 17 17 17 17 17 17 15
-5 -5 -4 -4 -2 0 1 1 2 5 7 9 9 9 11 14 15 15 16 16 16 17 17 17 17 17 17 17 17 17 17 17 17 17 17 17 17 17 17 17 17 16 16 16
-3 -2 -2 -1 -2 -2 0 1 0 1 4 7 8 8 10 12 13 14 15 15 16 16 17 16 17 17 17 17 17 17 17 17 17 17 17 17 16 16 16 16 16 16 16 16

GFSCGP_700_temp_048.txt.gz
Temp
10 9 10 11 12 13 15 15 16 16 16 15 15 16 16 15 13 13 12 14 13 13 13 12 12 12 12 12 11 11 11 11 11 12 12 12 11 11 11 10 10 10 10 10
9 10 11 11 12 12 13 14 15 16 15 14 16 16 16 16 14 13 12 13 14 13 13 13 13 12 12 12 12 12 12 12 12 12 12 11 11 11 11 10 10 10 10 10
11 12 11 11 11 11 12 14 15 15 15 15 15 16 16 15 14 13 13 13 11 13 13 14 13 13 13 13 13 13 12 12 12 12 12 12 11 11 12 12 11 11 11 10
11 12 11 11 11 12 13 13 13 14 14 16 16 18 17 16 15 14 14 13 14 14 13 13 14 14 13 13 13 13 13 13 13 12 12 12 12 12 11 11 11 11 11 10
11 11 11 11 11 12 13 14 13 13 14 15 16 16 17 17 16 15 14 14 14 15 14 14 14 14 14 14 13 13 13 13 13 13 13 12 12 12 12 12 12 12 12 11
11 11 11 12 12 12 12 13 13 13 14 16 16 16 17 17 16 16 15 14 15 14 14 14 14 14 14 14 14 13 13 13 13 13 13 13 13 12 12 12 12 12 12 11
11 11 11 11 11 11 11 12 15 15 16 17 17 16 17 17 17 16 16 16 15 16 16 15 14 14 13 14 14 14 14 14 14 13 13 13 13 13 13 12 12 12 12 12
11 12 11 12 12 12 12 13 16 16 18 19 16 17 17 17 17 16 16 17 15 15 16 16 15 15 14 14 14 14 14 14 14 14 14 14 13 13 13 12 12 12 12 12
13 13 13 12 11 13 12 12 15 17 17 17 19 17 17 16 16 16 16 16 16 15 17 17 16 15 15 14 14 15 14 14 14 14 14 13 13 13 13 13 12 12 12 12
12 14 13 12 11 12 14 13 14 15 17 17 18 18 18 17 16 16 16 17 17 16 16 17 17 16 16 15 15 15 15 14 14 14 14 14 14 13 13 13 13 13 13 12
10 12 14 13 12 13 12 13 13 15 16 18 18 19 18 17 16 16 17 17 17 17 17 18 18 18 17 16 16 15 15 15 14 14 14 13 14 14 13 13 13 13 13 13
8 10 13 13 13 13 13 13 13 15 15 15 17 19 17 16 16 16 17 17 17 17 17 17 17 17 17 17 17 17 16 15 15 15 14 14 14 13 13 13 13 13 13 13
5 9 12 13 13 13 13 13 14 14 15 16 16 17 16 16 15 15 16 16 16 16 16 16 16 18 18 18 18 17 17 16 16 15 15 14 14 14 14 14 13 13 13 13
5 8 11 14 14 13 12 14 13 14 14 16 16 16 16 16 16 15 16 15 15 16 17 18 18 18 18 18 18 18 17 17 17 16 15 15 15 14 14 14 14 13 13 13
2 7 6 9 8 8 12 13 13 14 14 15 16 16 15 15 16 15 15 15 16 16 17 17 17 18 18 18 19 19 18 17 17 17 16 16 15 15 14 14 14 14 14 14
1 5 4 6 7 7 8 9 10 12 14 14 14 15 15 15 14 15 14 14 15 15 15 17 17 18 18 18 18 19 19 18 18 17 17 16 16 15 15 15 15 14 14 14
-0 3 4 7 8 8 8 9 10 10 11 12 12 13 13 13 13 13 16 16 17 17 17 16 17 17 18 18 18 19 18 18 18 18 17 17 16 16 16 16 15 15 15 15
-1 1 3 6 7 8 10 11 11 10 10 10 11 11 12 12 12 12 12 15 16 17 17 16 16 17 17 17 18 18 18 18 18 18 18 17 17 16 16 16 16 16 16 16
-1 -0 3 4 6 9 10 9 9 9 10 11 11 11 11 12 12 12 12 14 15 16 17 17 16 16 16 17 18 18 18 18 18 18 18 17 17 17 17 17 17 17 16 16
-1 -2 1 4 5 8 9 8 7 8 8 9 9 9 10 11 12 13 13 13 14 16 16 17 17 17 17 17 18 18 18 18 18 18 18 17 17 17 17 17 17 17 16 16
-1 -1 -0 2 3 6 7 6 5 7 8 6 7 8 10 11 11 12 13 15 15 15 16 16 16 17 17 17 17 18 18 18 18 18 18 17 17 17 17 17 17 17 17 17
-0 -1 0 0 2 4 4 4 5 5 5 7 8 9 10 11 12 12 13 13 15 16 16 16 16 17 17 17 17 18 18 19 18 18 18 18 18 18 18 17 17 17 17 17
-1 -0 1 0 2 2 2 3 3 3 6 6 8 9 10 11 12 13 13 14 14 15 16 16 16 17 17 17 17 17 18 18 19 18 18 18 18 18 18 18 17 17 18 17
-2 -2 -2 -1 -0 -0 -0 1 1 1 5 7 8 10 10 11 12 13 14 14 15 15 16 16 16 16 17 17 17 17 17 18 18 18 19 18 18 18 18 18 17 17 17 17
-2 -2 -2 -2 -2 -1 -1 -0 3 1 2 6 8 8 9 10 11 12 14 15 15 15 16 16 16 16 17 17 17 17 17 18 18 18 18 18 18 18 18 17 17 17 17 17
-4 -4 -3 -2 -2 -1 -1 -1 -0 0 2 4 6 8 9 10 11 13 13 14 15 15 16 16 16 16 16 17 17 17 17 17 17 17 17 17 17 17 17 17 17 17 16 16

GFSCGP_700_temp_051.txt.gz
Temp
10 11 12 13 13 15 17 18 18 18 18 17 17 17 16 16 15 15 14 12 12 11 11 10 11 11 11 12 12 12 12 12 11 11 12 11 11 11 11 11 10 11 11 10
11 11 13 13 14 14 16 18 18 18 17 17 18 18 17 17 16 16 15 13 12 12 11 11 13 12 12 12 13 12 12 12 12 12 12 11 11 11 11 11 11 11 11 11
12 13 13 13 14 14 15 16 18 18 18 18 18 18 18 18 17 16 16 14 13 12 12 11 12 13 13 13 13 13 12 12 12 12 12 12 11 11 11 11 12 11 11 11
13 14 14 14 14 15 15 16 17 17 18 18 17 19 18 18 18 17 16 16 15 13 12 11 12 13 13 13 13 13 13 13 12 12 12 12 12 12 12 11 11 11 11 11
13 14 14 14 14 15 15 16 16 16 17 18 18 18 20 19 18 17 16 16 16 14 13 12 13 14 14 14 13 13 13 13 13 13 13 13 12 12 12 12 12 12 12 12
14 14 14 14 14 15 15 15 16 16 16 18 18 19 20 20 19 19 17 17 16 16 14 13 12 13 14 14 14 13 13 13 13 13 13 13 13 13 12 12 12 12 12 12
13 14 14 14 14 14 14 15 17 17 18 18 18 18 19 19 19 19 18 17 17 16 15 14 13 12 14 13 14 13 14 14 13 13 13 13 13 13 13 12 12 12 12 13
14 14 14 14 14 15 14 15 17 17 19 20 18 19 19 19 19 19 19 18 17 16 16 14 13 13 15 14 14 14 14 14 14 14 14 14 13 13 13 13 13 13 13 12
15 15 15 14 14 15 15 15 16 18 19 21 20 19 19 19 19 19 18 18 18 17 16 15 14 13 15 15 15 15 15 14 14 14 14 14 14 14 14 14 13 13 13 13
14 16 15 15 14 14 15 15 16 17 19 20 21 21 20 19 19 19 18 18 18 18 16 16 15 14 16 16 16 15 15 15 15 14 14 14 14 14 14 13 13 13 13 13
13 15 16 16 14 15 14 16 16 17 18 21 21 21 20 20 19 18 18 18 18 18 17 16 16 15 16 16 16 15 15 15 15 15 15 14 14 14 14 14 13 13 13 13
12 13 14 16 15 15 15 16 16 16 17 18 20 22 20 20 19 19 18 18 18 18 18 17 16 16 15 14 15 16 16 16 16 16 15 15 14 14 14 14 13 13 13 13
9 11 13 15 16 15 15 16 16 16 17 18 20 20 18 18 18 18 18 18 18 18 18 18 18 16 15 15 17 17 17 17 16 16 15 15 15 14 14 14 14 13 13 13
6 9 12 17 17 16 15 16 16 17 17 18 18 19 18 17 17 17 17 18 18 18 18 18 18 17 16 15 17 17 17 17 17 16 16 16 16 15 15 14 14 14 14 13
5 7 10 13 15 15 16 15 16 16 17 18 19 18 18 18 17 17 16 16 16 16 16 17 17 17 16 16 16 18 18 17 17 17 17 17 17 16 15 15 14 14 14 14
4 6 9 11 13 12 12 15 15 16 16 17 17 18 18 17 17 16 16 15 15 16 16 16 16 15 15 16 17 18 18 18 18 17 17 17 17 16 16 16 15 15 15 15
2 6 8 9 10 11 11 13 14 15 16 16 17 17 17 17 16 15 14 14 15 15 15 15 15 16 17 18 18 18 18 18 18 18 18 17 17 17 16 16 16 16 15 15
1 3 5 8 9 11 12 13 12 13 14 15 15 16 16 15 15 14 14 14 14 14 14 15 16 16 16 17 16 18 18 18 18 18 18 18 18 17 17 16 16 16 16 15
1 2 5 7 10 12 12 12 12 13 13 13 13 13 13 13 13 13 13 13 14 15 15 16 16 16 16 17 16 16 18 18 18 18 19 18 18 18 17 17 17 16 16 16
2 2 3 6 9 12 12 11 10 10 12 12 12 12 13 13 13 14 14 14 14 14 14 14 14 15 15 15 15 15 18 18 19 19 19 18 18 18 17 17 17 16 16 16
2 2 3 4 6 9 10 8 9 9 9 9 9 10 10 10 11 12 13 13 13 14 15 15 16 16 16 17 17 16 17 18 18 18 18 18 18 18 17 17 17 17 17 16
2 3 3 4 5 7 8 7 8 6 5 6 6 6 6 6 7 10 12 13 13 14 15 15 15 16 16 17 17 17 17 18 18 18 18 18 18 18 18 17 17 17 17 17
1 1 4 4 5 5 5 5 6 4 3 3 3 4 4 6 8 9 10 12 13 13 13 15 15 16 16 16 17 17 17 17 18 18 18 18 18 18 18 17 17 17 17 17
1 1 1 1 2 2 3 3 3 3 3 2 3 3 7 8 8 9 11 12 13 13 13 15 15 16 16 16 17 17 17 17 17 18 18 18 18 18 18 18 17 18 18 18
-1 -1 -0 0 1 0 1 1 1 2 2 2 3 6 8 9 10 11 12 12 13 13 14 14 15 15 16 16 17 17 17 17 17 17 18 18 18 18 18 18 18 18 18 18
-2 -2 -1 -0 0 1 1 0 1 1 1 4 6 7 8 9 10 11 11 12 13 13 14 15 15 15 16 16 16 17 17 17 17 17 17 17 18 18 18 18 17 17 17 17

GFSCGP_700_temp_057.txt.gz
Temp
11 10 11 11 12 13 13 15 16 16 17 16 17 15 15 14 12 13 13 11 10 11 11 9 9 9 9 9 10 12 12 12 12 12 12 11 11 11 11 11 11 11 11 11
10 10 11 12 12 13 14 14 15 17 17 18 16 16 15 15 14 15 14 13 13 11 10 10 9 9 9 10 11 12 12 13 12 12 12 12 11 11 11 11 12 12 11 11
10 12 11 12 12 13 14 14 15 16 18 18 17 15 14 13 13 13 14 14 13 12 12 11 10 10 10 12 13 12 13 13 12 12 12 12 11 12 12 12 12 12 12 11
11 12 13 12 13 13 14 14 15 16 16 17 17 14 14 14 14 13 13 14 12 12 13 12 12 11 13 14 13 13 13 13 13 12 12 12 12 12 12 12 12 12 12 12
11 12 12 13 13 14 14 14 15 15 16 17 17 17 16 15 16 14 13 15 14 13 14 14 14 14 13 14 14 13 13 13 13 13 13 13 13 12 12 12 13 13 12 12
12 12 12 13 13 14 14 15 15 16 16 15 17 17 18 15 17 16 14 16 15 14 14 14 15 14 13 13 14 13 13 13 13 13 13 13 13 13 13 13 13 13 13 13
11 12 12 13 14 14 14 15 14 14 14 14 17 17 18 18 19 18 17 16 15 15 15 15 15 14 14 14 14 14 13 13 13 13 13 13 13 13 13 13 13 13 13 13
11 11 13 13 14 14 15 15 15 11 12 14 17 17 18 18 19 19 17 18 16 15 16 16 15 15 15 14 15 15 14 14 13 13 13 14 14 13 13 13 13 13 13 13
11 11 14 13 14 15 15 15 16 16 17 16 17 17 18 18 19 19 18 18 18 17 17 16 16 16 15 15 15 15 15 15 14 15 14 14 14 14 14 14 13 13 13 13
9 11 13 14 14 15 16 16 16 16 12 13 16 18 18 19 19 19 18 19 19 18 17 17 16 16 16 15 15 15 16 15 15 15 15 14 15 14 14 14 14 13 13 13
4 8 12 13 15 15 15 16 16 16 16 11 12 17 19 19 19 20 19 19 19 18 17 17 17 17 16 16 15 15 15 15 15 15 15 15 14 14 14 14 13 13 13 13
2 3 10 12 13 15 15 16 16 16 15 16 17 17 19 20 20 20 20 20 19 18 18 17 17 17 17 16 15 15 16 16 16 16 16 15 15 14 14 14 14 13 13 13
1 3 6 11 12 13 15 16 16 16 16 16 15 16 18 19 21 20 20 20 19 19 18 18 18 17 17 16 16 16 16 17 16 16 16 15 15 15 15 14 14 14 14 13
-2 2 2 5 11 13 14 16 16 16 16 16 17 17 18 19 20 20 20 20 19 19 18 18 18 17 17 17 17 16 16 16 16 16 16 16 16 16 15 15 14 14 14 13
-2 2 4 6 9 11 14 16 16 16 16 17 17 18 18 19 19 19 19 19 19 19 19 18 18 18 17 17 17 17 17 16 16 16 16 16 16 16 16 15 15 14 14 13
-0 1 4 7 9 11 12 14 16 16 16 16 17 18 18 19 18 19 18 19 19 19 19 18 18 17 18 17 17 18 17 17 17 17 17 16 16 16 16 16 15 15 14 14
-4 0 3 7 9 10 11 14 15 16 17 17 17 18 18 18 18 19 18 18 18 18 18 17 17 16 16 17 17 17 17 17 17 18 18 17 17 17 17 16 16 15 15 15
-3 -0 2 5 9 9 11 13 14 16 17 17 17 17 18 18 17 17 17 17 17 16 17 17 17 16 16 16 16 17 16 16 17 18 18 18 19 18 17 17 17 16 16 16
-3 -0 2 5 7 10 12 11 12 14 13 13 16 16 17 17 17 16 16 16 16 16 16 16 16 16 16 16 16 16 16 16 16 17 18 18 18 19 18 18 17 17 17 17
0 -1 2 4 6 9 5 10 12 13 10 10 13 15 15 16 16 14 14 15 16 16 16 16 16 16 16 16 16 16 16 17 17 17 17 17 18 18 18 18 18 17 17 17
1 1 2 3 5 3 4 7 10 10 4 7 9 11 13 14 12 11 13 14 15 16 16 16 15 16 16 15 15 16 16 16 16 16 16 17 17 18 18 18 18 18 17 17
-1 1 3 3 3 2 2 4 4 3 4 5 7 8 10 9 9 9 12 13 14 14 15 15 15 15 16 15 15 16 16 16 15 15 16 17 17 17 18 18 18 18 18 17
-2 -3 -3 -2 -2 -2 0 -1 -0 2 3 4 5 6 8 8 8 9 10 12 13 14 14 14 14 14 15 15 15 15 15 15 15 15 16 17 17 17 17 18 18 18 18 18
-3 -3 -4 -2 -0 -2 -2 -0 -1 -0 3 3 3 4 5 7 7 8 10 11 12 13 13 13 13 13 14 14 15 16 16 15 15 15 15 16 17 17 17 17 17 18 18 18
-4 -3 -3 -1 0 -1 0 0 2 2 3 3 3 3 4 5 7 8 10 11 12 13 13 13 13 14 14 14 14 15 15 16 16 16 16 16 17 17 17 17 17 18 18 18
-5 -5 -5 -3 2 1 2 3 3 4 3 3 3 4 4 5 6 8 10 10 11 12 13 13 13 13 13 13 13 14 15 15 15 15 15 16 16 17 17 17 17 17 17 18

GFSCGP_700_temp_060.txt.gz
Temp
11 10 11 11 11 12 11 12 13 14 14 14 15 13 14 13 12 12 13 14 14 14 12 11 11 10 9 10 10 11 11 10 10 11 11 11 11 11 11 11 10 10 10 10
9 11 12 11 11 11 12 12 13 14 15 15 15 14 14 14 15 13 13 13 14 14 13 10 11 9 10 12 12 11 11 11 11 11 11 11 11 11 11 11 11 10 10 11
10 11 11 11 11 11 12 12 13 13 15 14 14 12 13 14 13 13 13 12 13 14 13 12 11 12 11 12 12 13 12 12 11 11 11 11 11 11 11 12 12 11 11 11
9 11 10 11 11 11 11 13 13 13 13 14 15 11 13 14 14 14 14 13 13 13 13 12 13 12 12 13 12 13 12 12 12 12 11 12 12 12 12 11 11 11 11 11
9 10 11 10 12 11 12 13 13 13 13 14 14 14 15 14 14 15 15 15 13 14 13 13 14 13 14 13 12 13 13 12 12 12 12 12 12 12 11 11 11 12 12 12
9 10 11 12 11 12 12 13 13 13 14 13 14 15 14 14 15 16 16 16 16 15 15 14 13 13 13 12 12 12 13 13 13 12 12 12 12 12 12 12 12 12 12 12
9 10 10 11 11 12 12 13 12 10 12 11 15 15 15 16 17 17 17 16 16 15 15 14 13 13 14 13 13 13 12 13 13 13 12 12 12 12 12 12 12 12 12 12
7 9 10 11 11 12 12 13 12 9 9 12 15 14 16 17 18 18 18 17 17 15 16 15 15 14 14 14 14 14 13 13 13 13 13 13 13 13 13 13 13 13 13 12
1 7 11 11 11 12 12 13 13 13 13 13 15 16 16 16 17 17 17 18 16 17 17 16 15 14 15 15 14 15 14 14 14 14 13 13 13 13 13 13 13 13 13 12
0 0 9 11 11 12 12 13 13 13 11 10 13 16 17 17 17 18 18 18 17 17 17 16 16 15 15 15 15 14 14 15 14 14 14 14 14 13 13 13 13 13 13 13
-0 -1 6 8 10 12 12 13 14 14 14 12 10 15 17 17 18 18 18 18 17 17 17 17 17 17 15 15 15 15 15 14 14 14 14 14 14 14 14 14 13 13 13 13
-1 -2 -1 7 10 11 12 13 13 14 13 15 15 15 17 17 18 18 19 18 18 18 17 17 17 17 16 15 15 15 14 14 15 15 15 15 14 14 14 14 14 13 13 13
-2 -1 -1 8 9 10 11 13 13 14 15 15 14 15 16 17 17 18 19 19 18 18 18 18 18 17 16 16 15 15 15 14 15 15 15 15 15 15 15 15 14 14 14 13
-3 -3 -2 -1 4 5 7 11 13 14 15 15 15 16 16 18 18 19 20 20 19 19 19 18 18 17 17 16 16 16 16 15 15 15 15 16 16 16 15 15 14 14 14 13
-4 -3 -1 -0 1 4 6 10 12 14 15 15 15 16 16 17 17 19 21 20 19 19 18 18 18 18 17 17 16 17 16 16 15 15 16 16 16 16 15 15 15 14 14 14
-4 -3 -3 2 6 7 9 11 12 13 14 15 16 16 16 17 17 19 20 20 19 19 19 18 18 18 17 17 16 17 16 16 16 16 16 16 16 16 16 16 15 15 15 14
-3 -3 -4 -0 8 9 10 10 12 14 15 15 16 16 17 17 17 18 19 19 19 19 19 19 18 18 18 17 17 17 17 17 17 16 16 16 16 16 16 15 15 15 15 15
-3 -3 -4 1 6 7 7 10 10 12 12 13 14 16 16 16 17 18 19 19 18 18 18 17 17 18 17 17 17 17 17 16 16 17 17 16 16 16 16 16 16 16 15 15
-3 -4 -3 0 4 8 10 8 7 6 7 9 13 15 15 16 17 17 16 17 17 17 17 16 15 16 16 16 16 16 17 17 16 17 17 17 17 17 17 17 16 16 16 16
-4 -4 -4 -1 3 5 1 4 7 7 6 4 8 10 13 14 17 15 15 15 15 16 16 15 15 15 15 16 17 16 16 16 16 16 17 17 17 17 18 17 17 16 16 17
-4 -4 -3 -2 2 1 0 5 7 4 2 3 4 7 10 12 11 14 14 15 15 15 15 16 16 16 15 15 16 16 16 16 16 16 16 16 17 17 17 17 17 17 17 17
-4 -3 -3 -2 0 -0 0 2 3 -1 1 3 3 4 5 6 7 10 13 14 15 15 15 15 15 15 16 15 15 16 16 16 16 16 16 16 16 17 17 17 17 18 17 17
-4 -4 -4 -4 -3 -2 -2 -0 0 1 2 3 3 4 4 5 7 8 10 12 13 14 15 15 15 15 15 15 15 15 15 16 16 16 16 15 15 16 16 17 17 17 18 18
-5 -5 -4 -2 -2 -1 -1 -1 -1 2 2 2 2 3 4 5 6 8 10 11 13 14 15 15 15 15 15 15 15 15 15 15 15 15 15 15 15 15 16 16 16 17 17 18
-6 -4 -3 -2 -1 2 2 -0 -1 0 2 2 2 2 3 4 6 7 9 10 12 13 14 14 14 14 15 15 15 15 15 15 14 14 15 15 15 15 15 16 16 16 17 17
-5 -6 -5 -4 -2 -1 4 2 1 2 0 1 2 2 3 4 5 7 8 9 10 11 11 12 13 13 13 14 14 14 15 15 15 15 15 15 15 15 15 15 16 16 16 17

GFSCGP_700_temp_063.txt.gz
Temp
10 9 10 12 10 10 11 11 12 13 13 13 13 13 13 13 13 13 12 13 13 13 11 11 11 11 10 10 10 10 11 10 10 10 10 11 11 11 11 10 10 11 10 10
9 9 12 11 10 10 10 11 12 14 13 13 13 13 13 14 14 14 13 13 13 12 11 11 11 11 11 11 10 10 10 10 11 11 11 11 11 11 10 10 10 10 10 10
8 10 10 10 10 10 10 10 12 12 12 12 13 12 12 12 13 12 12 12 13 13 13 12 11 12 12 12 12 12 12 11 12 11 11 11 10 11 11 11 11 10 10 10
8 9 9 9 10 10 10 11 12 12 11 12 12 11 12 13 13 13 13 14 13 12 12 12 13 12 13 13 12 12 12 12 12 12 11 11 11 11 12 11 10 10 10 10
8 9 10 8 11 10 11 11 11 11 11 12 12 13 14 14 13 13 14 15 14 14 13 13 13 13 13 13 13 12 12 12 12 12 11 11 11 11 11 10 10 11 11 11
8 9 10 10 10 10 11 11 11 11 12 11 12 13 13 14 14 15 15 15 15 14 14 13 13 13 12 12 13 12 12 12 12 12 11 11 11 11 11 11 11 11 11 11
8 8 9 9 10 10 10 10 10 9 9 10 12 13 13 14 15 16 16 16 16 16 15 15 14 13 13 12 13 12 12 12 12 12 11 11 11 11 11 11 11 11 11 12
5 7 8 9 9 10 10 10 10 7 7 11 13 11 14 14 15 16 15 16 16 16 16 15 15 14 14 13 13 13 13 12 12 12 12 12 11 11 11 11 11 11 11 11
2 5 8 9 9 10 10 10 11 11 10 10 13 14 14 15 15 15 16 16 16 16 16 16 15 15 15 14 13 14 14 13 13 13 12 12 12 12 12 12 12 12 12 12
-0 2 6 8 8 10 10 11 11 11 9 8 11 14 15 16 16 16 16 17 17 16 16 16 15 15 16 15 14 13 14 13 13 13 13 12 12 12 12 12 12 12 12 12
0 -1 5 6 7 9 10 10 11 12 12 10 8 12 15 16 16 16 16 17 17 18 18 17 16 16 16 15 15 14 13 13 13 13 13 13 13 13 12 12 12 13 12 12
-1 -1 0 5 8 8 9 10 11 12 11 12 12 12 14 16 17 17 17 17 17 18 18 18 17 17 16 15 15 14 14 13 14 13 13 13 13 13 13 13 13 13 13 13
-2 -2 1 5 8 7 7 9 9 11 12 13 12 13 14 15 16 17 17 17 18 18 18 18 17 17 17 16 15 15 14 13 14 13 13 14 14 14 14 13 13 13 13 13
-3 -3 -1 1 1 0 3 7 8 5 8 12 13 13 14 15 16 16 17 17 18 18 18 18 18 17 17 17 16 15 14 13 13 14 14 14 15 15 14 14 14 14 13 13
-3 -4 -3 -1 2 1 1 4 8 7 9 10 13 14 14 15 16 17 17 18 18 18 19 19 18 18 17 17 16 15 14 14 13 13 14 15 15 15 15 15 14 14 14 13
-4 -4 -4 -1 1 1 2 6 6 9 10 11 13 14 15 15 15 16 16 17 18 19 19 19 18 18 18 17 17 15 14 14 14 14 15 15 15 15 15 15 15 15 14 14
-4 -4 -4 -0 1 1 3 4 5 9 9 12 13 14 14 15 16 16 17 17 19 19 19 19 19 18 18 17 17 16 16 14 15 15 15 15 15 15 15 15 15 15 15 14
-4 -4 -4 -0 -1 1 4 4 3 5 9 10 10 12 14 15 15 16 17 18 19 18 19 19 19 19 18 17 17 16 16 16 16 16 16 15 15 15 15 15 15 15 15 15
-3 -5 -3 -3 -3 1 5 4 4 4 5 8 10 12 14 13 14 15 16 18 18 18 19 19 19 18 18 17 17 16 17 17 16 16 16 16 16 15 15 15 15 15 15 15
-5 -5 -4 -4 -3 3 3 3 2 2 3 5 7 11 10 12 13 13 14 16 18 18 19 19 18 18 17 17 17 16 17 17 16 16 16 15 15 15 15 15 14 14 14 14
-5 -5 -4 -4 -3 -1 1 3 3 3 2 2 4 7 10 10 10 11 11 12 14 16 17 18 18 17 17 17 17 17 16 17 16 16 17 15 15 15 15 14 15 15 15 15
-4 -4 -3 -4 -2 -0 0 1 2 1 1 2 2 4 6 7 6 7 9 11 12 13 14 15 16 16 17 17 17 17 17 16 17 16 16 16 16 16 16 16 16 16 16 16
-5 -5 -4 -5 -3 -3 -2 -1 -2 0 1 1 2 3 4 4 6 6 7 9 11 12 13 13 14 15 15 16 16 16 16 17 17 17 16 17 16 16 16 16 17 17 16 17
-6 -5 -5 -4 -4 -3 -2 -1 -1 0 1 1 2 2 3 4 5 6 7 8 9 11 12 13 14 14 14 14 15 15 15 15 15 16 16 17 17 17 17 16 16 15 16 16
-6 -6 -5 -5 -4 -1 0 -1 -1 -1 1 1 1 2 3 4 5 5 7 8 9 10 11 13 14 14 14 14 14 14 15 15 15 15 15 16 16 16 16 17 16 17 16 15
-6 -6 -6 -5 -4 -4 1 1 0 -0 0 2 1 2 2 3 4 5 6 7 8 9 10 12 13 14 14 14 15 15 15 15 14 14 14 15 15 15 15 15 15 15 15 16

GFSCGP_700_temp_069.txt.gz
Temp
8 8 10 10 9 8 9 9 11 12 11 11 12 11 13 13 13 13 13 13 14 13 12 11 11 10 10 10 10 10 10 10 10 10 10 10 10 10 10 10 10 10 9 9
7 8 10 9 9 8 8 9 10 11 12 11 12 12 13 13 13 13 13 13 13 13 12 12 11 11 11 10 10 10 10 10 10 10 10 10 10 10 10 10 10 9 9 9
6 8 8 9 8 8 8 8 9 11 11 11 11 12 12 13 13 12 12 12 12 12 13 12 11 11 11 11 11 10 10 10 10 10 10 10 10 10 10 10 10 10 10 9
6 7 8 8 8 9 8 10 9 10 10 12 11 14 13 13 14 13 13 13 12 12 12 12 12 11 11 11 11 11 10 10 10 10 11 10 10 10 10 10 10 10 10 10
6 7 7 7 8 8 8 9 10 9 9 10 11 11 14 13 13 14 14 14 13 12 12 12 13 12 12 11 11 11 10 10 10 10 11 11 10 10 10 10 10 10 10 10
6 7 7 7 8 8 8 8 8 8 9 10 11 11 13 12 13 14 14 14 14 13 13 13 12 12 12 11 10 10 10 10 10 10 11 11 11 11 11 11 10 10 10 10
6 6 7 7 7 7 7 8 9 9 10 11 12 11 12 12 13 14 14 14 14 14 14 13 13 12 12 12 11 11 11 11 11 11 11 11 11 11 11 11 11 11 11 10
6 7 7 7 7 8 7 8 10 10 12 13 11 11 12 12 13 13 14 14 14 14 14 14 13 13 13 12 12 11 11 11 11 12 12 12 11 11 11 11 11 11 11 11
4 5 6 7 7 7 7 7 9 10 9 11 13 11 11 12 12 13 14 14 15 15 15 15 14 13 13 13 12 12 12 12 11 12 12 12 12 12 12 11 11 12 11 11
2 3 5 6 7 7 8 8 8 8 10 10 12 12 13 13 12 13 14 14 15 16 16 15 15 14 14 13 13 12 12 13 13 12 12 12 12 12 12 12 12 12 11 11
1 1 4 5 6 7 7 7 8 9 9 12 12 12 12 12 13 14 14 14 15 16 15 16 15 15 14 14 14 13 12 12 12 12 12 12 12 12 12 12 12 12 11 11
0 -0 1 3 4 6 6 6 7 8 9 9 11 12 12 13 13 14 14 15 15 16 16 16 16 15 15 15 14 14 13 12 12 12 12 12 12 12 12 12 12 12 12 12
-2 -2 0 4 4 4 3 5 6 7 7 8 10 11 11 12 13 13 14 15 15 16 16 16 16 16 16 15 15 14 14 13 12 12 12 12 12 12 12 12 12 12 12 12
-3 -2 -1 2 0 -1 0 2 3 2 6 8 9 10 10 11 13 13 14 14 15 16 16 16 16 16 16 16 15 15 14 14 13 12 12 12 13 13 13 13 12 12 12 12
-4 -4 -3 -2 -2 -1 -0 1 1 0 3 6 9 8 9 11 12 13 14 14 14 14 15 16 17 17 17 16 16 15 15 14 13 13 13 13 13 13 13 13 13 12 12 12
-4 -4 -4 -2 -1 -2 0 1 2 1 2 2 6 8 9 10 12 12 13 14 14 15 16 15 16 17 17 17 17 16 15 15 14 13 13 13 13 13 13 13 13 13 13 13
-5 -5 -4 -2 -3 -3 0 2 4 2 2 3 5 8 10 10 11 12 12 13 14 15 16 16 17 17 17 18 17 17 16 15 14 13 13 13 13 14 13 13 14 14 14 13
-5 -5 -5 -4 -3 0 1 1 3 2 2 4 6 9 10 10 11 12 13 13 14 15 15 16 17 17 18 18 18 17 16 16 15 14 13 13 14 14 14 14 14 14 14 14
-6 -6 -5 -4 -3 -1 -1 -0 -0 0 1 4 7 9 9 11 11 11 12 12 13 14 16 16 17 17 17 18 18 17 17 16 15 14 13 13 14 14 15 15 15 15 15 14
-5 -6 -5 -4 -3 -0 -1 -1 -0 0 0 2 6 7 6 9 10 11 12 13 13 14 15 17 17 18 18 18 18 17 17 16 15 15 14 13 13 14 15 15 15 15 15 15
-6 -7 -6 -5 -4 -4 -2 -2 -1 -1 0 2 3 4 6 7 9 10 11 12 13 14 15 17 17 18 18 18 18 17 17 16 15 15 15 14 14 15 15 14 14 14 14 14
-6 -6 -6 -6 -5 -3 -4 -3 -2 -1 0 1 2 4 5 6 7 8 9 10 12 14 14 15 16 16 17 18 18 17 17 16 16 15 14 14 14 14 13 14 14 14 14 14
-5 -6 -5 -5 -4 -4 -4 -3 -3 -2 -1 -0 1 1 3 4 5 6 7 8 9 9 13 14 14 15 17 18 17 17 17 16 16 15 15 14 14 14 14 14 14 14 15 15
-6 -6 -5 -5 -4 -4 -3 -4 -3 -2 -2 -1 -0 1 1 3 5 6 7 8 8 9 9 11 11 14 16 17 16 17 16 16 16 15 15 15 14 14 14 14 14 15 15 15
-6 -6 -6 -5 -5 -5 -4 -4 -4 -2 -2 -2 -1 0 1 2 3 4 5 6 7 9 9 10 10 12 14 15 16 16 16 16 16 16 16 15 15 15 15 15 15 15 16 16
-6 -6 -6 -6 -5 -5 -5 -4 -3 -2 -2 -2 -1 0 1 2 3 3 4 5 5 7 9 10 9 10 12 13 14 15 15 16 16 16 16 15 15 14 14 15 15 15 15 15

GFSCGP_700_temp_072.txt.gz
Temp
6 7 9 10 10 12 12 14 14 14 14 13 14 14 12 13 13 13 13 13 13 12 12 11 11 10 10 11 11 11 11 10 10 10 10 10 10 10 9 9 9 9 9 9
6 8 9 9 10 10 11 11 13 14 13 13 14 14 14 12 13 13 13 13 13 12 12 11 11 11 11 11 11 11 11 11 11 11 10 10 10 10 9 9 9 9 9 9
8 9 9 9 9 8 10 11 13 14 13 12 13 14 14 13 12 11 13 12 12 13 13 12 11 11 11 11 11 11 11 11 11 11 10 10 10 10 10 10 9 9 10 9
7 8 8 8 8 9 10 11 11 12 12 14 13 16 14 14 12 11 13 13 13 12 12 12 12 12 12 11 11 11 11 11 11 11 11 11 10 10 10 10 10 9 10 10
8 8 8 8 9 9 10 11 10 11 11 13 14 14 16 15 13 12 13 12 13 13 12 12 13 12 12 11 11 11 11 11 11 11 11 11 11 10 10 10 10 10 10 10
7 8 8 8 9 9 9 9 10 10 11 13 14 14 16 15 14 13 12 12 14 14 13 13 12 12 12 11 11 11 11 11 11 11 11 11 11 11 11 10 10 10 10 10
7 8 7 8 9 9 8 9 12 13 13 15 14 14 15 16 15 14 14 13 14 14 14 14 13 13 13 12 12 11 11 11 11 11 11 11 11 11 11 10 10 10 10 11
9 9 8 8 9 10 9 10 13 13 16 16 14 15 14 14 14 14 14 14 13 13 14 14 14 13 13 13 13 12 12 11 11 11 12 12 11 11 11 11 11 11 11 11
7 8 7 7 8 9 10 9 11 14 15 15 16 14 14 14 14 13 13 14 13 13 14 14 15 14 13 13 13 13 13 12 11 12 11 12 12 12 12 11 11 11 11 11
4 5 6 6 7 7 8 10 10 11 13 14 16 16 15 14 13 14 14 14 14 14 13 14 15 15 14 13 13 12 13 13 12 12 12 12 12 12 12 12 11 11 12 11
1 3 6 5 6 8 8 8 10 11 12 15 15 16 15 15 14 14 14 14 15 15 14 14 15 15 15 14 13 13 13 13 13 12 12 12 13 12 12 12 12 12 12 12
1 2 4 6 6 6 7 8 9 11 12 12 13 16 14 14 14 14 14 15 15 14 14 14 15 15 15 15 14 13 13 13 14 14 14 13 13 13 12 12 12 12 12 12
-0 2 3 5 5 5 6 7 7 10 11 12 13 13 14 13 13 13 13 13 13 15 14 13 14 15 15 15 15 14 13 13 14 14 14 14 14 13 13 12 12 12 12 12
-2 0 1 5 4 3 3 4 5 7 9 11 12 13 13 13 13 12 12 12 13 14 15 15 15 15 15 15 15 15 14 13 13 14 14 14 14 14 13 13 12 12 12 12
-3 -1 0 1 1 1 1 2 2 4 6 9 11 11 12 12 11 11 12 12 13 14 14 15 15 15 16 16 15 15 15 14 13 13 14 14 13 13 13 13 13 13 12 12
-3 -2 -2 -1 0 1 1 2 2 3 4 5 6 8 10 10 10 11 11 12 13 14 14 14 15 15 16 16 16 15 15 15 14 14 13 14 14 13 13 13 13 13 13 13
-4 -3 -2 -0 1 1 2 3 3 4 4 4 5 7 9 8 9 10 12 12 13 13 14 14 15 16 16 16 16 16 15 15 15 15 14 13 13 14 13 13 13 13 13 13
-4 -3 -3 -1 0 2 4 1 2 4 4 4 5 6 5 7 7 9 11 11 12 13 14 14 15 16 16 16 17 16 16 15 15 15 14 14 13 13 13 13 13 13 13 13
-4 -5 -3 -1 1 2 2 1 1 2 4 2 2 3 6 7 8 10 10 11 12 13 13 14 15 16 16 17 17 17 17 16 16 15 14 14 13 13 13 14 14 14 13 14
-4 -4 -5 -2 -0 2 -1 -1 -0 -0 -0 -1 1 3 6 7 7 7 9 11 11 12 13 14 15 16 17 17 17 17 17 16 16 16 15 15 14 13 13 14 14 14 14 14
-5 -5 -5 -4 -3 -1 -2 -2 -3 -2 -1 0 2 4 6 4 6 7 7 10 11 12 13 14 15 15 16 17 17 17 17 17 17 16 15 14 14 13 13 13 13 14 14 14
-5 -6 -5 -5 -4 -2 -2 -3 -3 -2 -1 1 1 2 2 3 5 5 7 9 11 12 13 14 14 15 16 17 17 17 18 17 17 16 16 15 14 13 13 13 13 14 14 15
-6 -6 -5 -5 -3 -4 -3 -2 -2 -3 -2 -1 1 1 2 3 4 5 6 7 9 11 12 13 14 14 16 16 17 17 17 17 17 16 16 15 14 13 13 13 14 14 15 15
-6 -6 -6 -5 -4 -5 -4 -3 -3 -2 -2 -2 -1 -1 -0 1 2 4 5 6 8 8 10 12 13 13 13 14 15 17 17 17 16 16 15 14 14 13 14 14 14 14 15 15
-6 -6 -6 -5 -5 -5 -5 -4 -4 -2 -3 -2 -2 -1 -1 -0 1 2 4 5 6 8 8 9 12 11 11 11 12 14 15 16 16 16 16 15 14 14 14 14 14 14 15 15
-6 -7 -7 -6 -6 -6 -5 -5 -4 -3 -3 -2 -2 -1 -2 -1 0 1 2 4 5 7 9 9 9 11 10 10 11 11 12 14 15 16 16 15 15 15 14 14 14 14 14 14

GFSCGP_700_temp_075.txt.gz
Temp
7 9 10 12 12 14 16 17 17 17 17 16 16 16 15 13 13 13 12 11 10 10 9 9 8 9 11 11 11 11 11 11 10 10 10 10 10 9 7 6 9 10 10 9
9 9 11 12 13 13 14 15 16 17 17 16 16 16 15 14 13 13 12 11 11 10 10 9 8 9 11 11 11 11 11 11 11 10 10 10 9 7 6 6 10 10 10 9
10 11 11 11 12 13 13 14 15 16 17 16 16 16 15 13 13 13 13 12 11 10 10 9 8 9 11 12 12 12 11 11 11 11 10 10 10 7 7 8 10 10 10 10
10 11 11 11 12 12 13 13 14 15 16 16 16 18 17 14 12 13 13 13 12 11 10 10 9 10 12 12 12 11 11 11 11 11 11 10 10 9 7 7 7 10 10 10
10 10 11 11 11 12 12 13 13 14 15 16 17 16 18 17 15 15 14 14 13 12 11 11 11 13 12 12 12 12 11 11 11 11 11 11 10 10 9 8 9 9 10 10
10 10 10 11 11 11 11 12 13 13 14 16 16 17 18 18 16 15 15 14 13 13 12 11 12 11 11 11 12 12 12 11 11 11 11 11 11 11 10 10 10 11 10 10
9 9 10 10 11 11 11 12 13 14 15 16 16 16 18 18 16 16 16 15 14 13 12 11 11 11 13 12 13 12 12 12 11 12 11 12 11 11 11 11 10 10 10 8
10 11 10 11 10 11 11 12 14 15 17 18 16 17 17 17 16 14 16 15 15 14 13 12 11 11 13 13 13 13 13 12 12 12 12 12 12 11 11 11 11 10 9 8
10 11 11 11 10 11 12 12 13 15 17 18 18 17 17 17 17 15 14 16 15 14 14 13 12 11 12 13 13 14 13 13 12 12 12 12 12 12 12 11 11 11 11 8
7 8 9 10 9 10 11 12 13 13 15 17 19 19 17 17 17 16 16 16 16 15 14 14 13 11 11 13 13 13 13 14 12 12 12 12 12 12 12 12 11 11 11 11
5 6 8 9 9 9 10 10 11 13 14 17 18 19 18 17 16 16 16 15 16 16 15 14 14 12 11 11 12 13 13 13 13 12 13 12 12 12 12 12 12 12 12 12
5 5 7 8 9 9 9 11 11 12 14 15 16 18 17 18 17 16 16 16 16 16 16 15 15 13 12 11 12 14 13 13 14 14 14 13 13 13 13 13 12 12 12 12
2 3 5 7 7 8 8 9 10 12 13 15 16 16 15 15 16 16 15 16 16 16 16 15 15 14 12 11 14 14 14 14 13 14 14 14 13 13 13 13 13 12 13 13
-1 1 3 7 8 7 8 8 9 10 12 13 14 16 15 15 15 14 13 13 13 13 14 14 15 14 13 12 14 15 14 14 13 13 14 14 14 14 14 14 13 13 13 13
-1 0 2 3 4 4 5 6 7 8 9 11 13 14 14 14 14 13 13 11 12 13 12 13 14 14 13 12 13 15 14 14 14 14 14 14 14 14 14 14 14 13 13 13
-2 -1 -1 1 2 4 4 5 5 5 6 7 9 10 12 11 10 11 11 10 10 10 10 10 12 13 13 12 14 15 15 15 14 14 14 14 14 14 14 14 14 14 13 13
-2 -2 -1 0 2 3 4 4 5 5 6 7 8 9 10 10 9 9 9 9 10 11 12 13 13 13 14 12 12 15 15 15 15 14 14 14 14 14 14 14 14 14 14 13
-1 -2 -3 -2 1 2 5 5 5 5 6 6 7 7 8 8 7 7 6 8 10 11 12 12 13 14 14 14 13 12 15 15 15 15 15 14 14 13 13 14 14 14 14 14
-1 -1 -3 -2 0 2 4 2 2 3 5 5 7 7 7 5 5 7 6 6 9 11 11 12 12 14 14 14 15 14 14 16 15 15 15 15 14 14 13 13 14 14 14 13
-1 -1 -1 -1 -1 2 -0 1 2 2 3 2 3 4 4 2 4 6 7 8 9 10 11 12 12 12 14 14 15 15 16 16 16 16 15 15 14 14 14 13 14 14 14 14
-3 -3 -2 -1 -1 0 -1 -2 -0 -0 1 2 2 4 4 5 5 6 5 6 8 10 10 11 12 13 14 15 15 15 16 17 17 16 15 15 14 14 14 13 13 13 14 14
-5 -4 -3 -3 -3 -1 -2 -2 -2 -1 -1 -0 1 1 2 4 5 4 6 6 8 8 10 11 12 13 14 14 15 15 16 17 17 17 16 15 15 15 14 13 13 13 13 13
-5 -5 -5 -4 -2 -2 -2 -3 -3 -2 -1 -1 -1 -1 -0 1 2 2 4 6 7 8 9 11 12 12 13 14 14 15 15 16 17 17 16 16 15 15 14 14 13 13 13 14
-6 -5 -5 -6 -4 -3 -4 -4 -2 -2 -2 -2 -1 -1 -1 -0 1 2 3 4 5 7 8 9 11 12 13 13 14 15 16 16 16 17 16 16 16 15 14 14 13 13 13 14
-6 -6 -7 -6 -5 -5 -5 -4 -3 -3 -2 -1 -0 -0 -1 -1 -0 1 3 4 4 5 6 7 9 11 12 13 14 14 15 16 17 16 17 16 16 15 14 14 13 13 13 14
-6 -7 -7 -7 -6 -6 -5 -5 -5 -4 -3 -3 -1 -1 -2 -1 -1 -0 1 3 4 5 6 7 7 9 12 13 12 12 13 14 15 16 16 16 16 15 14 13 13 13 14 14

GFSCGP_700_temp_078.txt.gz
Temp
9 9 10 11 12 13 15 17 18 18 18 18 17 15 15 14 14 12 11 11 10 10 9 9 9 9 9 11 12 11 11 12 11 11 10 10 10 9 9 11 10 10 10 10
10 10 11 12 13 13 14 15 17 18 18 18 18 16 16 15 13 11 11 12 11 10 10 9 9 9 9 11 12 11 11 12 11 11 11 10 10 10 8 9 10 10 10 10
11 12 11 12 13 14 14 15 16 17 18 18 18 16 14 15 14 11 12 13 12 11 11 10 10 9 9 12 12 12 12 12 11 11 11 10 10 10 10 9 10 11 10 10
11 11 13 12 13 14 14 15 15 16 17 18 18 18 14 15 11 13 13 12 12 12 11 10 10 9 10 12 12 12 12 12 11 11 11 11 11 11 11 9 10 11 11 11
11 12 12 13 13 13 14 14 15 15 15 17 18 18 19 15 13 14 14 13 13 12 11 10 11 12 11 12 13 12 12 12 11 12 11 11 11 10 11 10 9 11 11 11
11 11 12 12 13 13 13 13 14 15 15 16 17 18 18 14 16 15 16 13 12 13 12 11 11 11 11 11 13 13 12 12 11 12 12 12 11 11 11 10 10 11 11 11
11 11 11 12 12 12 12 13 14 14 15 16 16 17 18 18 18 16 16 14 14 13 13 12 11 10 13 13 13 13 13 12 12 12 12 12 11 11 11 11 11 11 11 11
11 12 12 11 12 12 13 13 14 14 16 17 16 17 17 17 18 16 16 16 15 14 13 13 12 11 13 13 14 14 14 12 12 12 12 12 12 11 11 11 11 11 11 11
9 11 12 12 12 12 13 13 13 14 16 17 18 17 17 18 18 16 15 15 15 14 14 13 12 12 13 13 14 14 15 13 12 12 12 12 12 12 12 12 11 11 11 9
7 8 10 11 12 12 12 13 13 14 15 15 18 19 18 18 18 17 16 16 15 12 13 14 13 12 12 14 13 13 14 14 13 12 12 12 12 12 12 12 12 12 11 11
5 6 8 9 10 11 11 12 13 14 14 16 16 18 19 18 18 18 16 16 16 12 12 14 13 13 14 13 13 13 13 14 14 12 12 12 12 12 12 12 12 12 12 12
4 5 6 8 10 10 11 11 12 12 13 14 16 18 17 18 18 18 17 16 16 14 10 9 13 14 14 14 13 14 14 13 14 13 13 13 12 12 12 12 12 12 12 12
1 4 5 7 8 9 10 10 11 11 12 13 16 16 17 17 18 18 17 17 17 16 14 14 15 14 14 13 13 14 14 14 13 13 13 13 13 13 13 13 13 13 12 13
1 1 2 5 7 6 8 10 10 11 12 13 13 15 16 16 16 16 16 15 15 15 16 16 15 15 14 14 14 13 13 14 14 14 13 14 14 14 13 13 13 13 13 13
0 1 2 3 3 4 5 7 9 10 10 11 12 14 9 11 11 13 12 15 14 14 14 15 15 14 14 12 14 13 13 13 14 14 14 14 14 14 14 13 13 13 13 13
-0 -0 -0 0 2 2 4 5 7 8 8 9 10 10 8 9 9 9 10 10 10 11 13 13 14 14 13 12 14 14 13 13 13 14 14 14 13 14 14 13 13 13 13 14
0 -2 -1 -0 2 2 3 5 6 7 8 8 8 9 9 7 8 7 7 7 7 7 13 14 14 14 12 11 11 13 13 12 12 13 14 14 13 14 14 14 14 14 14 14
0 0 -2 -1 -0 0 3 5 5 6 6 7 8 8 8 6 5 5 5 5 7 9 12 13 13 14 14 12 12 11 11 13 12 13 14 15 14 13 14 14 14 14 14 14
0 -0 -0 -2 0 -1 2 2 3 3 6 6 5 4 5 4 4 4 4 5 6 8 10 12 12 12 13 13 12 13 12 11 13 14 15 15 15 14 13 13 14 14 14 14
-2 -1 -0 0 -0 1 0 -0 1 1 4 3 4 4 5 5 4 5 5 6 6 8 10 10 11 11 12 12 13 12 12 12 15 15 14 14 15 15 14 13 13 13 13 14
-3 -1 -3 -1 1 1 1 -0 -1 -0 1 1 2 3 3 3 3 4 5 5 6 7 9 9 11 11 12 12 13 13 13 14 14 15 14 14 15 15 15 14 13 13 13 13
-4 -4 -3 -2 -1 -0 -1 -1 -1 -1 -1 -1 1 2 3 2 2 4 5 6 5 6 8 9 10 11 12 12 12 13 13 13 14 15 16 15 15 15 15 14 14 13 13 12
-4 -5 -5 -4 -3 -2 -3 -3 -2 -3 -2 -0 0 0 1 2 2 2 4 5 6 6 7 8 10 11 11 12 12 13 14 14 15 15 16 16 16 15 15 15 14 14 13 13
-5 -5 -5 -4 -3 -4 -3 -3 -4 -4 -3 -1 -0 0 0 1 2 3 4 4 5 6 7 8 9 10 10 11 12 12 13 14 13 15 16 16 16 16 15 15 15 14 14 14
-5 -5 -5 -5 -5 -5 -5 -5 -5 -3 -3 -2 -1 -0 -0 0 1 1 3 4 4 6 7 7 8 8 9 10 11 11 12 13 12 14 15 16 16 16 16 15 15 15 14 14
-5 -5 -6 -6 -6 -6 -5 -4 -4 -3 -3 -2 -2 -1 -1 1 0 0 1 1 3 4 4 5 6 7 7 9 9 10 10 11 12 13 14 15 15 16 16 16 15 15 14 13

GFSCGP_700_temp_084.txt.gz
Temp
9 9 9 10 10 10 11 11 11 13 14 14 15 14 14 13 13 13 13 13 12 9 9 9 9 9 9 9 10 10 10 10 10 10 10 11 10 10 10 9 9 10 9 10
8 9 9 9 10 10 11 11 12 13 14 14 15 15 13 14 14 13 13 13 13 11 10 10 9 9 9 10 10 11 10 10 10 10 10 10 10 10 10 9 9 10 10 10
8 10 10 10 10 10 11 11 13 13 14 14 14 10 12 12 13 13 13 13 12 11 10 10 9 9 10 10 11 11 11 10 10 10 10 10 10 11 11 10 10 10 11 10
9 10 10 10 10 11 11 12 12 13 14 14 13 12 11 13 13 13 12 13 12 11 11 11 10 10 10 11 11 11 11 11 10 10 11 11 11 12 11 11 11 11 11 10
9 10 10 10 11 11 12 13 13 13 13 13 14 14 12 11 12 12 13 14 13 14 13 13 12 11 10 10 12 12 11 11 11 11 11 11 11 11 11 12 11 12 11 11
9 10 10 11 11 11 12 12 13 13 13 11 13 14 13 13 15 14 13 15 15 14 13 13 13 12 10 11 11 12 12 12 11 11 11 11 11 11 11 12 11 12 11 11
9 10 11 10 11 12 12 12 11 10 10 8 13 13 15 15 15 15 15 15 15 14 13 13 13 13 11 11 11 12 12 12 11 11 11 11 11 11 11 12 12 12 11 11
9 10 10 9 10 10 12 12 11 9 8 10 13 13 14 15 16 16 16 15 15 14 15 14 14 14 13 12 12 12 12 12 12 12 12 12 11 11 12 12 12 12 11 12
8 9 9 10 10 10 11 11 12 12 12 11 12 13 14 14 14 15 16 17 16 15 15 15 13 13 13 13 13 13 12 12 12 12 12 12 12 12 12 12 12 12 12 12
6 7 9 10 10 10 10 10 11 12 8 9 11 13 13 13 14 14 16 16 17 15 15 15 13 13 13 13 13 13 13 13 12 12 12 12 12 12 12 12 12 12 12 12
6 6 8 8 8 7 8 7 8 9 11 7 8 11 9 11 12 13 15 16 16 16 16 15 13 13 13 13 13 12 11 12 12 12 11 11 11 11 12 12 12 12 12 12
4 5 5 7 6 6 6 5 5 5 8 9 10 9 9 10 12 13 15 15 14 15 15 15 13 14 12 13 14 13 13 11 11 12 12 11 11 11 11 12 12 12 12 12
3 3 3 5 5 6 6 4 4 5 6 8 8 9 9 10 11 10 13 11 11 11 12 11 11 12 13 12 13 14 14 13 12 11 11 11 11 11 11 11 11 11 12 12
2 1 1 0 -0 1 2 4 3 3 4 3 6 6 8 9 10 7 8 8 10 12 11 11 11 10 10 10 11 12 13 13 12 12 11 11 11 11 11 11 11 11 11 12
0 0 0 0 1 1 1 2 2 3 3 3 4 5 6 7 8 9 7 6 7 8 9 11 12 11 9 9 10 11 11 13 12 11 11 11 12 11 11 11 10 11 11 11
-0 -0 -0 -0 0 1 1 1 1 2 3 3 3 5 4 5 6 7 8 7 6 8 8 9 10 10 11 11 10 10 12 12 12 12 11 11 11 12 12 11 11 10 11 11
0 -0 -0 -0 -0 1 2 1 1 1 2 2 3 3 4 5 6 6 6 7 7 7 7 7 8 8 9 9 8 11 11 12 12 12 11 10 10 11 12 12 12 11 11 12
-0 -0 -0 -1 -0 -2 1 1 0 -0 0 1 2 3 2 4 5 5 5 5 6 6 5 7 8 9 9 11 11 11 11 11 12 12 12 11 10 10 11 11 12 12 11 12
-1 -1 -0 -1 -1 -0 -0 -0 -1 -0 -1 -0 2 2 1 2 5 4 5 5 6 5 6 6 6 7 8 10 10 11 11 10 10 11 11 11 11 11 10 11 12 12 12 12
-1 -1 -1 -1 -2 -2 -1 -0 -1 -1 -1 -1 -0 1 2 1 2 3 4 3 4 4 4 5 5 7 7 8 9 11 11 11 10 10 10 10 11 11 11 10 11 11 12 12
-1 -2 -2 -2 -2 -2 -1 -1 -1 -2 -1 -0 -1 -1 0 0 0 1 2 2 3 3 4 4 4 6 7 7 8 8 9 8 9 9 10 11 12 11 11 10 10 11 11 12
-3 -3 -3 -3 -3 -3 -3 -3 -2 -2 -2 -2 -1 -2 0 1 0 0 1 2 2 2 4 3 4 4 6 7 8 8 9 9 9 11 12 8 10 11 10 11 10 11 12 12
-4 -3 -3 -3 -3 -3 -3 -3 -3 -2 -2 -2 -2 -2 -2 -1 0 1 2 2 2 2 3 3 4 5 4 5 7 8 8 9 9 9 9 9 9 10 11 12 12 12 12 13
-4 -4 -4 -3 -3 -3 -4 -3 -3 -3 -3 -2 -2 -1 -1 -1 -1 0 1 1 2 2 2 3 2 3 4 3 6 8 9 10 10 11 11 11 11 11 12 12 12 12 13 13
-4 -4 -3 -3 -3 -3 -3 -3 -4 -4 -5 -4 -4 -3 -2 -1 -1 -1 -0 1 1 2 2 3 3 2 3 3 5 7 9 9 10 11 12 12 11 12 12 12 12 12 13 13
-3 -3 -4 -4 -4 -4 -4 -4 -4 -4 -5 -5 -5 -3 -3 -3 -2 -1 -0 -0 1 2 1 2 3 3 3 4 5 6 8 9 10 11 12 11 11 12 12 12 12 12 13 13

GFSCGP_700_temp_087.txt.gz
Temp
8 8 9 9 10 10 11 11 12 12 12 12 14 14 13 13 14 13 12 11 10 11 11 10 11 10 9 9 9 10 10 10 10 11 10 10 10 10 9 9 9 9 9 9
8 8 9 9 10 10 10 11 12 13 13 12 13 14 13 13 14 14 12 12 11 10 10 10 11 11 9 10 9 10 10 10 10 10 10 10 9 9 9 9 10 10 9 9
8 9 9 9 9 10 10 10 12 12 12 13 13 12 12 12 13 13 12 12 11 11 11 11 10 11 10 10 9 10 10 10 10 10 10 10 9 9 10 10 10 9 9 9
8 9 9 9 9 10 10 11 11 12 12 13 12 11 11 11 12 12 12 12 12 11 11 11 11 11 11 12 10 10 10 10 10 10 10 10 10 10 9 10 9 9 10 10
8 9 9 9 10 10 11 11 12 12 12 13 12 13 12 11 11 13 13 12 11 11 11 11 11 11 11 11 11 10 10 10 10 11 10 11 10 10 9 9 9 10 10 10
9 9 9 10 10 10 11 11 11 12 12 11 13 13 14 14 14 14 14 13 12 11 11 11 11 11 11 10 11 10 10 10 10 11 11 11 11 10 9 10 10 10 10 10
9 9 10 10 10 11 11 11 11 10 9 8 12 13 13 14 14 14 15 14 14 13 12 12 11 11 11 11 11 11 10 10 11 11 11 11 11 10 10 9 10 10 11 11
9 9 9 9 10 10 11 11 11 8 6 8 12 13 12 13 13 14 14 14 12 13 13 12 12 12 12 12 12 12 11 11 11 11 11 11 11 11 10 10 9 10 11 10
8 8 8 8 9 10 10 10 10 11 9 10 11 12 12 13 13 13 14 15 15 14 13 14 14 13 12 12 12 12 12 10 11 11 11 11 11 11 11 11 10 11 11 10
7 8 8 8 9 8 9 9 10 10 7 8 10 8 6 11 12 13 14 14 16 16 14 13 13 14 14 13 12 11 11 11 11 11 11 11 11 11 11 11 11 11 10 10
6 7 7 7 6 6 8 8 8 9 9 5 6 6 6 8 9 11 13 15 15 16 15 13 12 13 14 13 12 12 12 10 10 11 11 11 11 11 11 11 11 11 10 11
5 6 5 4 4 5 6 5 6 6 7 7 7 5 6 7 8 10 12 14 15 15 13 12 11 12 12 12 12 13 12 11 11 11 11 11 11 11 11 11 11 11 11 11
4 4 4 3 3 4 4 3 4 5 5 4 4 4 5 6 7 9 10 10 12 12 13 12 12 11 12 11 12 12 12 12 11 10 10 11 11 11 11 11 11 11 11 11
3 2 2 3 1 1 0 1 3 3 4 4 4 4 4 6 6 7 7 7 8 8 10 10 11 11 11 11 12 12 12 12 12 11 10 10 11 11 11 11 11 11 11 11
2 1 0 0 -0 -0 -0 1 2 2 3 3 4 3 3 4 6 6 7 7 7 7 8 9 10 11 11 12 12 12 12 12 12 11 11 11 10 11 11 10 10 11 11 11
1 0 0 -0 -0 -0 0 0 1 1 2 4 4 3 3 3 4 5 6 7 7 6 7 7 7 8 10 10 10 11 12 12 13 12 11 11 11 10 11 11 10 10 10 11
-0 -0 -0 -0 -0 -0 1 -0 0 1 1 3 3 2 2 2 3 4 5 6 6 6 6 7 7 7 8 9 10 10 11 10 12 12 11 10 10 11 10 11 11 10 10 10
-1 -1 -1 -1 -1 -1 -1 -1 -1 -0 1 2 3 2 0 2 1 3 4 5 6 6 6 5 4 6 7 7 7 9 9 10 10 11 11 11 10 10 10 10 11 11 11 11
-1 -1 -1 -1 -1 -0 -0 -0 -1 -0 -0 0 1 1 0 0 1 2 2 3 4 5 6 6 5 5 6 7 7 8 9 9 10 10 10 11 11 10 10 11 10 10 11 11
-1 -1 -1 -1 -1 -2 -1 -1 -1 -1 -1 0 1 1 1 0 1 1 1 1 2 4 4 4 6 5 5 5 5 6 8 8 8 9 9 10 11 10 11 10 10 10 10 11
-1 -1 -1 -2 -2 -2 -1 -1 -1 -2 -1 -1 -0 -1 -0 0 0 1 1 1 1 1 2 3 5 5 4 4 4 5 5 7 8 9 10 10 11 11 10 11 10 10 11 10
-2 -2 -2 -3 -3 -3 -2 -2 -3 -2 -2 -2 -2 -1 -1 -1 1 0 1 1 1 1 1 2 2 4 6 5 4 4 5 6 8 10 10 11 10 10 9 10 10 9 10 11
-2 -2 -2 -2 -2 -2 -2 -2 -2 -2 -2 -2 -2 -1 -1 -1 -0 -0 -0 -0 -0 1 1 1 2 2 4 4 4 4 5 6 6 7 8 8 9 10 10 10 10 10 10 10
-3 -3 -3 -3 -2 -2 -3 -3 -3 -3 -3 -3 -3 -2 -2 -1 -1 -1 0 0 -0 0 1 2 2 3 2 3 4 3 4 5 6 8 8 9 9 8 8 9 10 10 11 11
-3 -3 -2 -2 -3 -3 -3 -4 -4 -4 -4 -4 -4 -4 -4 -4 -3 -1 -0 0 1 1 1 1 2 2 3 4 4 5 5 5 5 7 8 9 10 10 9 10 11 11 11 11
-2 -2 -3 -3 -3 -4 -4 -4 -4 -4 -4 -5 -5 -4 -4 -4 -4 -3 -1 -0 1 1 1 1 2 2 3 3 3 5 6 5 5 5 7 8 9 9 9 10 11 11 11 10

GFSCGP_700_temp_093.txt.gz
Temp
9 8 8 8 9 10 11 11 11 11 11 11 12 12 12 12 11 11 12 12 10 10 9 9 9 9 9 10 10 10 9 9 10 9 9 9 9 8 9 8 8 8 8 8
8 7 9 8 9 10 10 11 11 11 12 12 13 13 13 13 12 12 12 12 11 10 10 9 9 9 9 9 9 10 10 9 9 10 10 9 9 9 9 9 9 9 8 8
8 8 8 8 8 9 10 10 11 11 12 12 13 13 14 14 14 13 12 12 11 10 10 10 9 9 9 9 9 9 9 9 9 9 10 9 9 9 9 9 9 9 9 8
7 8 8 8 8 9 9 10 11 11 11 13 13 14 13 13 13 12 11 11 12 11 10 10 9 9 10 9 8 8 9 9 9 9 10 10 9 9 8 9 9 9 9 9
7 8 8 8 8 9 9 10 10 11 11 12 12 13 9 11 10 11 10 11 11 11 11 10 10 10 10 9 9 8 8 9 10 10 10 10 10 9 9 9 9 10 9 9
8 8 8 8 8 9 9 10 10 11 11 13 12 13 9 10 10 11 11 11 11 11 11 11 10 10 10 9 9 8 8 8 9 10 10 10 10 10 9 9 9 10 9 9
8 8 8 9 9 9 9 10 11 12 12 14 12 11 7 8 10 11 11 11 12 11 12 11 11 11 10 10 9 9 9 8 9 10 11 10 10 10 10 9 9 10 10 9
8 8 8 9 9 9 10 10 12 12 12 13 11 10 6 8 9 10 11 12 13 13 13 13 12 11 11 10 10 10 9 9 8 9 10 10 10 11 10 10 9 9 9 9
7 6 7 8 9 9 10 10 10 10 9 13 10 7 8 8 9 11 11 12 13 14 14 13 13 12 11 11 10 10 9 9 9 9 9 10 10 11 11 10 10 10 9 9
7 6 7 7 8 9 9 10 10 10 11 12 8 7 6 8 10 11 12 13 13 14 14 14 12 12 11 11 10 10 10 9 9 9 8 9 10 10 10 10 10 10 10 9
7 7 6 7 7 8 8 8 9 10 10 13 11 7 4 5 7 10 12 13 13 14 14 14 14 13 12 11 10 10 10 10 9 9 9 8 9 9 10 10 10 10 10 10
6 6 6 5 6 7 7 8 9 10 8 8 10 5 4 5 6 8 9 10 12 12 13 13 13 13 13 13 11 10 10 10 10 9 9 9 8 8 9 10 10 10 10 10
6 5 4 4 5 5 6 6 7 8 8 7 11 5 5 5 5 7 8 9 9 9 9 10 11 12 13 12 12 12 11 11 10 10 9 9 9 8 8 9 10 10 10 10
5 5 5 6 5 6 5 5 6 6 6 6 6 4 4 4 4 5 7 8 8 8 7 7 8 9 11 11 11 11 12 11 11 10 9 9 9 8 8 8 9 9 10 10
4 4 4 4 4 4 4 4 5 5 5 5 3 3 3 4 4 5 5 5 7 7 7 7 7 8 8 8 10 11 11 11 11 11 10 9 9 9 8 8 8 9 9 10
2 1 1 1 1 2 2 3 4 4 4 4 2 2 3 3 3 4 4 4 5 6 7 7 8 8 8 8 8 8 10 10 11 11 11 10 10 9 9 10 9 9 9 10
2 1 0 0 0 0 1 1 2 2 3 2 2 2 1 2 1 2 3 4 4 5 6 6 6 7 8 7 7 7 7 8 10 10 10 10 10 10 10 10 10 10 10 10
1 1 0 -0 -1 2 1 1 1 2 2 2 2 2 2 1 1 2 2 3 4 4 4 5 5 6 6 7 7 7 7 7 7 8 9 9 10 10 10 10 10 10 10 10
-0 -0 -0 -0 -0 -1 -0 0 1 1 1 1 1 1 1 1 1 1 1 2 3 3 4 4 5 5 5 6 6 7 8 7 7 8 8 9 9 10 10 10 10 10 10 10
-1 -1 -1 -1 0 2 0 1 0 0 -0 1 1 1 1 0 0 -0 1 1 1 2 2 3 4 4 5 5 5 5 6 7 6 7 7 7 10 10 9 10 10 10 10 10
-2 -2 -1 -1 -0 -0 1 1 0 -1 0 1 0 0 0 0 1 1 1 1 1 1 1 1 1 3 3 4 5 5 5 6 7 7 7 8 9 8 9 10 10 9 9 9
-1 -1 -2 -2 -2 -0 -0 -0 -1 -0 -0 -0 -0 -0 -0 -0 -0 0 1 1 1 1 1 1 1 1 1 2 3 4 4 5 6 7 6 8 8 8 8 10 10 10 9 9
-2 -1 -1 -1 -1 -1 -0 -1 -1 -1 -1 -1 -1 -1 -1 -1 -0 -0 0 0 0 1 1 1 1 1 1 1 2 3 4 4 5 5 6 7 6 7 7 7 8 8 9 8
-1 -1 -2 -1 -1 -1 -1 -1 -2 -2 -2 -2 -2 -2 -1 -1 -1 -1 -0 0 0 0 1 1 2 2 2 1 1 2 3 4 4 4 5 6 7 6 5 7 7 8 8 8
-2 -1 -1 -2 -1 -2 -2 -2 -2 -2 -2 -2 -2 -2 -2 -2 -2 -1 -1 -0 0 1 1 1 1 2 2 1 1 1 2 3 4 4 4 5 6 6 7 6 6 7 8 7
-1 -1 -1 -2 -2 -2 -2 -2 -2 -2 -2 -2 -2 -3 -3 -2 -2 -2 -1 -1 -0 0 0 0 0 1 2 1 1 1 1 2 4 4 4 4 4 5 6 6 5 7 8 7

GFSCGP_700_temp_096.txt.gz
Temp
8 9 10 11 12 14 14 14 14 13 11 12 12 12 11 11 9 11 11 10 9 8 9 10 10 9 10 10 10 10 10 10 9 9 9 9 9 8 8 8 9 9 9 9
8 9 10 11 11 11 13 14 14 12 12 12 12 13 11 11 9 9 10 10 9 9 8 9 9 9 10 10 10 10 10 9 9 9 8 9 9 8 8 9 9 9 9 9
10 10 9 9 10 11 12 14 13 14 12 12 12 12 11 10 9 10 10 11 10 10 8 9 8 8 9 10 10 10 10 9 9 9 9 9 9 9 8 9 9 9 9 9
10 10 9 9 10 11 13 12 12 12 13 15 13 14 11 10 9 10 10 10 10 10 9 8 8 9 9 10 10 10 10 9 9 9 9 9 9 8 7 8 9 9 8 9
10 9 9 10 11 11 13 11 12 13 13 14 14 15 11 11 10 9 9 11 10 9 9 9 8 8 9 9 9 9 9 9 9 9 9 9 9 9 9 9 9 9 8 8
9 9 9 10 10 10 10 11 11 12 14 15 16 16 11 10 7 8 8 9 10 11 10 10 9 8 9 9 9 8 9 9 9 10 9 9 9 9 9 9 9 9 9 9
8 9 8 9 10 10 10 12 13 14 15 17 15 15 9 7 7 8 9 11 12 11 11 11 9 9 8 9 9 9 8 8 8 9 10 9 9 9 9 9 9 9 9 9
10 9 8 9 9 11 11 12 15 14 16 17 14 14 7 7 6 10 11 12 13 13 12 11 11 10 10 10 10 9 9 8 8 9 9 9 10 10 10 10 9 9 7 9
10 8 8 9 9 10 11 11 13 15 15 17 14 8 7 7 6 10 11 12 13 13 13 13 12 11 11 10 10 10 9 9 8 9 8 9 9 10 10 10 9 9 9 8
8 8 7 8 9 9 10 11 12 13 15 16 14 11 9 6 6 10 11 12 13 13 14 13 12 11 9 10 10 10 10 9 9 9 8 8 8 9 10 10 10 10 9 9
7 9 7 8 8 8 10 10 11 13 14 16 15 11 5 5 7 9 11 12 13 13 13 13 13 12 9 10 10 10 10 9 9 9 9 9 9 8 9 10 10 10 10 10
7 8 9 7 7 8 9 8 10 12 13 13 15 6 5 6 7 8 9 11 12 12 13 13 12 10 11 12 10 10 10 10 10 9 9 9 9 9 8 9 10 10 10 10
7 8 8 7 6 7 7 6 8 9 11 13 15 6 5 5 6 6 7 8 10 11 12 12 11 11 11 11 10 11 11 10 10 10 10 9 9 9 8 8 8 9 10 10
6 6 7 9 8 7 7 6 7 9 11 13 12 6 4 4 5 6 8 9 8 9 10 10 9 9 9 10 11 10 11 11 10 10 10 10 9 9 8 8 8 8 9 10
5 5 5 5 5 6 5 5 6 7 8 10 9 4 4 4 4 4 6 7 8 8 8 8 8 8 7 8 8 8 12 10 10 10 10 10 10 9 9 8 8 8 9 9
4 4 4 4 5 5 5 4 5 5 6 8 5 3 3 4 4 4 4 5 6 6 7 7 8 8 8 8 8 8 10 11 10 10 10 10 10 10 9 9 9 9 10 9
2 3 3 6 2 3 5 5 5 5 4 6 4 3 4 3 4 4 4 4 5 5 6 6 7 7 7 7 8 8 8 8 9 10 10 10 10 10 10 9 9 9 10 10
1 2 3 5 3 6 3 2 3 3 3 3 3 4 3 3 3 3 4 4 4 5 5 5 5 6 6 7 7 7 8 8 8 8 9 10 11 10 10 10 9 9 9 10
1 2 3 4 4 3 2 1 2 2 2 2 1 1 3 3 2 3 3 3 4 4 4 5 5 5 5 6 6 6 7 7 7 8 9 9 9 10 9 9 9 9 10 9
-0 -0 1 3 5 6 4 1 1 1 3 2 0 0 1 2 1 2 2 2 3 3 4 4 4 5 5 5 5 5 5 6 7 7 8 9 9 9 9 8 8 9 9 10
-0 0 1 2 3 4 1 2 1 1 3 2 2 0 2 0 1 1 1 2 2 2 3 3 3 4 4 4 5 4 5 4 5 6 6 7 8 8 8 8 8 8 9 9
-0 0 0 1 2 3 0 1 0 1 1 2 1 1 1 0 1 0 1 1 1 2 2 2 3 3 2 3 4 4 4 4 4 5 6 6 7 7 7 7 8 9 9 8
-1 -1 -1 0 1 0 -0 -1 -1 -1 -0 0 0 0 0 0 0 0 0 0 1 1 2 2 2 3 2 3 2 2 3 4 4 4 4 5 6 6 6 7 7 8 9 9
-1 -0 -1 -2 -0 -1 -1 -0 -1 -1 -1 -1 -1 -1 -1 -0 -0 -0 -0 0 0 0 1 1 2 2 3 3 3 2 2 2 3 4 4 4 5 5 6 6 6 7 7 8
-2 -1 -1 -1 -2 -1 -1 -1 -1 -1 -1 -1 -1 -1 -1 -1 -1 -0 -0 -0 0 0 1 1 1 2 3 3 3 3 3 2 2 3 3 4 4 5 5 6 6 6 6 7
-1 -1 -1 -1 -2 -1 -2 -1 -2 -2 -2 -1 -1 -1 -1 -1 -1 -1 -1 -0 0 0 1 1 1 1 2 2 2 2 2 2 2 2 3 3 4 4 5 5 5 6 6 7

GFSCGP_700_temp_102.txt.gz
Temp
9 10 12 13 14 15 17 17 16 16 14 13 12 11 11 10 10 10 10 10 10 10 9 9 8 8 8 10 10 11 11 11 11 10 10 9 9 9 9 9 9 10 10 10
11 11 13 14 14 15 16 16 16 12 13 13 12 10 9 9 9 10 10 10 10 10 9 9 8 8 8 11 10 11 11 11 11 10 10 9 9 9 10 10 9 9 9 10
12 13 13 14 15 16 17 17 16 12 12 13 12 10 9 10 10 10 10 10 10 10 9 10 9 8 8 11 10 10 11 11 11 10 11 10 10 8 9 10 10 10 10 10
12 14 14 14 15 16 16 17 13 13 14 12 12 10 10 9 10 9 10 10 9 10 9 9 9 8 9 10 11 10 11 10 11 10 10 10 9 8 9 9 10 10 10 10
13 13 14 14 15 16 16 17 16 17 17 13 13 14 12 10 10 9 10 10 10 10 10 9 9 9 9 10 11 11 11 11 11 10 9 9 9 9 10 9 10 10 10 10
13 13 14 14 14 15 15 16 17 16 17 16 15 16 10 11 10 11 10 10 10 10 10 10 9 10 9 10 10 11 11 11 10 11 10 10 9 9 9 8 10 10 10 10
13 14 14 13 14 15 15 15 16 17 17 18 17 16 11 11 11 10 10 10 10 10 10 9 9 9 9 9 10 11 11 11 11 11 11 10 9 9 8 8 10 10 11 10
13 14 14 13 14 15 15 15 17 16 17 19 17 13 10 9 10 11 11 11 11 10 11 10 10 10 10 9 9 10 10 10 11 11 11 11 10 9 9 8 10 11 10 10
13 14 13 13 13 12 14 15 16 18 18 19 13 9 9 9 10 10 11 12 11 11 10 10 9 10 9 9 9 10 10 9 10 11 11 11 11 11 10 10 10 10 9 9
11 12 13 12 12 12 13 14 15 16 16 18 13 11 10 8 11 11 12 13 12 12 11 10 10 10 10 9 10 9 10 9 9 10 10 11 11 11 11 11 11 10 8 9
11 11 12 12 12 12 13 13 14 16 17 18 14 11 10 9 10 13 13 13 12 11 11 12 12 11 11 10 10 10 9 9 9 9 9 10 10 11 11 11 11 11 9 9
11 11 11 12 12 12 13 14 14 15 16 17 13 8 7 7 10 11 11 12 12 12 11 12 12 11 10 10 9 9 10 9 9 10 9 9 9 9 10 10 11 11 11 11
9 11 12 12 11 11 11 13 14 15 15 16 14 8 6 8 10 10 11 11 12 12 11 11 10 10 11 9 9 8 8 7 9 9 9 10 9 10 10 9 9 10 10 11
9 9 10 9 10 12 12 12 13 13 14 15 10 8 6 6 7 7 9 10 11 12 11 10 10 10 11 10 10 10 10 8 9 9 9 10 10 10 9 10 9 10 10 10
8 9 10 10 10 10 11 12 12 12 13 12 7 6 6 5 6 5 7 6 9 10 11 10 10 10 10 9 10 10 10 9 8 9 9 10 10 11 10 10 10 10 9 10
7 7 8 9 10 10 10 11 11 11 12 10 8 6 5 5 5 6 6 6 8 10 10 10 10 10 10 10 9 9 9 9 9 8 10 9 10 10 11 11 10 10 10 10
7 7 8 9 9 10 10 10 10 10 11 11 8 7 6 5 5 5 5 4 8 8 9 9 9 9 9 9 8 8 8 8 9 10 10 9 9 9 10 9 10 10 10 10
6 6 7 8 8 9 10 9 10 10 10 10 9 7 6 4 4 5 4 3 5 7 7 7 8 8 8 8 8 7 8 8 8 9 9 9 9 10 9 9 9 10 10 10
6 5 7 7 8 9 9 8 9 9 10 8 7 5 5 4 4 3 3 2 4 5 6 7 6 7 7 7 8 8 8 8 8 8 8 8 8 10 10 10 9 9 10 9
5 5 5 7 8 9 7 7 7 8 8 8 6 5 4 3 2 2 3 3 4 4 5 5 5 6 6 6 6 7 8 8 8 8 8 8 8 8 8 8 9 9 10 10
4 5 5 6 7 7 6 5 5 7 7 7 6 4 5 3 3 3 2 3 4 4 4 5 5 5 6 6 6 6 6 7 7 7 8 8 8 8 8 8 8 8 8 9
5 4 5 5 6 6 4 4 5 4 5 5 5 3 3 2 3 3 2 2 3 4 4 4 4 5 5 6 6 6 6 6 6 6 7 7 7 8 8 8 8 8 8 8
3 4 3 4 4 3 3 2 2 3 3 3 3 3 2 2 3 2 0 2 2 3 3 3 4 4 4 5 5 6 6 6 7 7 6 6 6 7 7 8 8 8 8 8
2 2 2 3 2 2 2 1 1 1 2 2 2 2 2 1 1 0 -1 0 1 2 2 3 3 4 4 4 4 4 4 5 5 6 6 6 6 6 6 6 7 7 8 8
2 0 1 1 2 1 1 1 0 0 0 -0 -0 -0 1 -0 -1 -1 -1 1 1 1 2 2 2 2 3 3 3 4 4 4 5 5 6 6 6 6 6 6 6 6 6 7
-0 1 1 1 1 1 1 1 -0 -1 -1 -1 -1 -1 -2 -2 -2 -2 -1 -0 1 1 1 1 2 2 2 3 3 3 4 4 5 5 5 5 5 6 6 6 6 6 7 7

GFSCGP_700_temp_105.txt.gz
Temp
9 10 10 12 12 13 15 15 15 13 12 12 12 12 11 11 11 9 10 10 10 10 10 9 9 10 11 10 10 11 11 11 10 10 9 10 9 9 9 9 9 9 9 9
10 10 12 12 13 13 14 14 12 12 10 11 12 11 9 10 10 10 10 10 10 10 9 9 9 10 11 10 10 11 10 10 10 11 10 10 10 10 9 9 9 9 9 9
10 11 13 12 13 14 14 15 14 11 12 11 10 9 9 9 10 9 9 10 10 10 10 10 9 10 10 10 10 11 11 10 10 10 10 9 10 9 10 10 9 9 9 9
11 12 12 13 13 14 15 16 14 13 13 10 11 8 8 9 10 9 9 10 10 10 10 9 9 9 10 10 10 11 11 10 11 10 11 10 9 9 10 9 9 9 9 9
11 12 13 14 14 15 15 15 15 14 13 13 11 11 11 10 11 9 10 10 9 10 10 10 9 9 10 9 10 11 10 11 10 10 10 11 9 10 10 10 10 9 10 10
12 13 13 14 14 15 15 16 13 14 13 9 13 13 9 10 10 11 11 10 10 9 10 9 10 9 10 9 10 10 10 11 11 11 11 10 10 10 9 10 10 9 9 9
12 13 13 14 14 15 15 15 15 13 8 10 15 13 11 9 9 9 9 9 10 10 10 9 9 9 9 9 9 9 10 11 11 11 11 11 10 10 10 10 10 10 10 10
12 13 13 14 14 14 14 15 15 12 12 15 16 12 10 10 9 9 8 9 10 10 9 9 9 9 9 9 10 9 10 10 10 10 11 11 10 10 10 10 11 10 10 10
12 13 13 14 14 14 14 15 15 15 15 16 11 8 9 10 10 10 8 9 9 10 10 9 9 9 8 9 9 9 9 10 10 10 10 11 11 11 10 10 11 10 10 10
11 11 12 13 13 13 13 13 14 15 13 13 11 9 9 9 10 10 10 9 9 10 10 10 9 10 9 9 10 9 9 9 9 9 9 10 10 10 10 11 10 10 9 10
10 10 12 12 12 13 13 13 13 14 15 12 9 9 9 9 10 11 10 9 9 9 11 11 9 9 10 9 9 9 9 10 9 9 9 9 10 10 10 10 9 10 11 10
9 10 10 12 12 12 12 13 13 14 14 15 12 7 7 8 8 8 8 8 9 9 10 11 10 10 9 10 10 9 10 10 9 10 9 9 9 9 10 10 10 10 10 10
9 9 8 11 12 12 12 12 13 13 14 14 12 7 7 9 10 9 9 9 8 10 11 11 11 11 11 10 9 9 8 9 9 8 9 9 9 9 10 10 10 10 10 11
8 8 8 8 10 10 11 12 12 13 13 10 10 7 8 9 8 9 9 7 8 10 10 11 11 11 10 10 10 9 10 10 8 9 9 9 9 9 9 9 9 10 10 10
8 6 7 9 10 10 11 11 12 12 12 11 9 10 6 5 6 6 6 7 8 8 9 10 11 11 10 10 10 10 10 9 8 9 8 8 9 9 9 10 10 10 9 9
7 6 6 8 9 10 10 11 12 12 11 11 9 8 8 6 5 5 5 5 7 7 8 8 9 10 10 10 9 9 9 9 9 8 9 8 8 8 9 9 10 10 10 10
7 7 5 8 8 9 9 10 10 11 11 10 8 9 9 7 5 5 5 5 5 6 6 7 10 10 10 9 9 9 9 9 9 9 9 8 8 8 8 9 9 9 9 10
6 6 6 6 8 7 9 10 10 10 10 10 9 8 9 7 5 4 5 5 5 6 7 8 9 10 9 9 9 8 8 8 8 8 8 9 9 9 9 8 9 9 9 9
6 6 6 6 7 8 9 8 9 9 8 9 9 7 5 5 4 4 4 3 6 6 6 6 7 8 8 8 8 7 7 7 8 8 8 8 9 9 9 9 9 9 9 9
5 5 5 6 7 7 6 7 8 8 7 7 7 6 6 4 5 4 3 3 5 5 4 5 6 6 7 7 7 7 8 7 7 7 8 8 8 8 8 8 8 8 9 10
5 5 5 5 6 5 5 6 7 7 5 5 6 6 6 5 5 4 4 4 5 3 4 4 5 5 5 5 6 7 7 7 8 8 8 8 8 8 8 8 8 8 9 9
4 4 4 5 5 4 4 5 6 4 5 5 5 5 5 4 4 3 3 3 3 3 4 4 4 4 5 5 5 5 6 7 7 7 8 8 8 8 8 9 8 8 8 8
4 3 4 4 3 3 3 4 4 3 5 5 4 4 5 4 3 3 3 2 3 3 3 3 3 4 4 5 5 6 6 6 6 7 7 7 7 7 8 8 8 9 8 8
3 3 3 3 2 2 3 2 3 4 4 4 4 4 4 3 3 2 1 2 2 3 3 3 3 3 4 4 4 4 5 6 6 6 6 6 6 6 7 7 7 8 8 8
2 2 2 2 2 2 2 1 2 2 3 3 2 1 0 0 0 0 0 2 3 3 3 3 3 3 3 3 3 4 4 4 5 5 5 6 6 6 6 6 6 7 7 7
1 1 1 1 1 1 1 1 1 1 1 1 1 1 1 0 -0 -1 0 1 2 2 2 2 2 2 2 2 2 3 3 4 4 4 4 5 5 5 6 6 6 6 6 6

GFSCGP_700_temp_108.txt.gz
Temp
10 10 11 12 11 13 13 12 13 12 11 11 12 11 11 10 10 9 10 10 9 10 10 9 10 9 9 9 10 9 11 10 9 9 9 9 9 9 9 9 9 8 9 8
9 10 12 12 12 12 12 12 13 11 11 11 11 10 10 9 9 9 9 10 9 10 9 9 9 9 9 9 11 10 10 11 10 9 9 9 9 9 9 9 9 9 9 9
9 12 11 11 12 12 13 13 13 14 11 11 10 9 10 8 9 9 9 9 9 10 10 10 9 9 9 10 11 10 10 10 10 10 10 9 9 9 9 9 9 9 9 9
9 12 10 11 12 12 12 14 14 14 13 11 11 10 10 9 8 9 9 9 10 10 10 10 10 10 10 10 10 10 10 10 10 10 10 10 9 9 9 10 9 9 9 9
10 11 11 11 12 13 13 14 14 13 12 11 11 11 10 9 9 9 9 9 10 9 10 10 10 10 10 9 10 10 10 10 10 10 10 10 10 10 10 10 10 10 9 10
10 11 11 12 13 13 13 13 12 12 11 10 12 10 9 10 10 10 9 9 9 9 9 9 10 10 9 9 9 10 10 10 10 10 10 10 10 10 10 10 10 10 10 10
11 11 12 12 12 13 13 13 11 9 10 9 11 10 11 11 11 11 10 10 9 9 9 8 9 10 10 9 9 9 10 10 10 10 10 10 10 10 10 10 10 10 10 10
10 11 12 12 13 13 14 14 13 10 8 10 12 10 12 11 10 10 10 8 9 9 9 8 8 10 10 9 9 9 9 10 10 10 10 10 10 9 10 9 10 10 10 10
10 11 12 12 13 13 14 13 14 14 13 12 11 8 9 10 9 10 9 9 9 9 8 9 8 9 9 9 9 9 9 10 9 9 10 10 9 9 9 9 10 10 10 10
10 10 11 13 13 13 13 13 13 14 11 12 9 9 8 8 8 8 9 9 9 8 8 9 9 8 10 9 8 8 8 10 9 9 10 9 9 9 9 10 10 10 10 10
10 10 11 12 12 13 13 13 13 13 14 9 7 8 9 8 8 8 8 8 8 7 7 9 9 9 10 9 9 9 9 10 10 10 10 11 10 9 9 10 10 10 10 10
9 9 10 11 12 12 12 12 12 12 13 12 9 7 8 9 8 7 7 7 8 8 9 10 9 9 9 9 9 9 9 9 9 9 10 10 10 10 10 10 10 10 10 10
8 8 10 11 11 11 11 12 12 12 13 10 8 7 8 7 7 10 6 7 8 8 9 10 9 10 10 9 9 9 9 8 8 8 8 9 10 10 10 9 10 10 10 10
8 8 8 7 7 8 9 11 11 12 12 11 10 7 7 7 8 9 7 7 7 6 7 10 10 9 9 9 9 9 8 8 8 10 8 9 9 10 10 10 10 10 10 10
8 8 8 7 8 8 9 10 11 12 12 12 10 11 8 7 7 8 6 6 7 7 7 8 10 9 9 10 10 9 9 9 9 9 8 9 9 9 9 9 9 10 10 10
7 8 8 8 7 8 9 10 10 11 11 11 10 9 8 6 6 6 6 6 7 7 8 9 10 10 9 9 9 9 10 9 8 9 8 7 8 8 9 9 8 8 9 9
7 7 6 8 7 8 9 9 10 10 11 11 10 11 8 5 5 5 5 5 6 7 9 9 9 10 10 10 10 9 9 9 9 9 9 9 8 8 8 8 8 8 9 9
6 6 7 6 6 6 7 8 9 10 9 9 9 10 9 6 5 5 5 5 4 6 9 9 10 10 10 10 10 9 9 9 9 8 8 8 8 8 8 9 9 8 9 9
6 6 6 6 4 6 6 7 8 9 8 8 9 9 6 5 4 4 4 4 5 7 8 8 7 8 8 9 9 8 7 7 7 7 7 8 8 8 8 8 8 8 8 8
5 5 5 5 5 5 5 7 8 8 8 7 7 8 8 7 6 5 4 4 6 5 5 6 6 6 6 7 6 6 6 6 6 6 7 7 7 7 8 8 8 8 8 8
5 5 5 5 5 5 5 6 7 8 7 6 6 6 6 7 7 8 6 4 3 4 4 4 5 4 4 5 5 5 5 5 6 6 6 7 7 7 7 7 7 7 7 8
4 4 4 4 5 4 5 5 7 7 7 7 6 5 5 5 5 5 6 6 5 4 4 4 4 4 4 4 5 5 5 5 6 6 6 7 7 7 8 8 8 7 7 8
4 4 4 4 3 2 3 4 5 6 6 5 5 5 4 4 4 5 5 4 4 4 4 4 3 3 3 4 4 4 5 5 6 6 7 7 7 7 8 8 8 8 8 8
2 3 3 3 2 2 2 3 4 5 5 4 4 4 4 4 4 4 4 4 3 3 3 3 3 3 3 3 3 4 5 5 5 6 6 7 7 7 7 7 8 8 8 8
2 2 2 2 2 2 1 2 3 3 4 3 3 2 2 3 3 2 2 2 2 2 2 2 3 2 2 3 3 4 4 4 4 5 5 5 6 6 6 6 6 7 7 7
1 1 2 2 1 1 1 1 1 1 2 2 2 2 1 2 2 1 1 2 2 2 1 2 2 2 2 2 2 3 3 3 3 4 4 4 5 5 5 5 5 5 6 6

GFSCGP_700_temp_111.txt.gz
Temp
9 10 11 11 10 11 12 12 11 12 12 11 12 10 10 9 8 8 8 9 9 9 10 9 9 9 10 10 9 10 9 10 9 8 9 9 9 9 9 9 8 8 8 8
9 10 11 11 11 11 11 12 12 11 11 11 11 11 10 9 9 9 9 9 9 9 8 9 9 9 10 10 10 10 9 10 9 9 9 8 9 9 9 9 9 9 8 9
10 11 11 11 11 11 11 12 12 12 11 10 10 9 10 10 9 9 8 8 9 9 9 9 9 10 9 10 10 10 10 10 10 10 9 9 9 9 9 9 9 9 9 9
9 10 10 10 10 11 12 13 13 12 11 11 11 10 10 10 9 9 8 8 8 9 8 9 10 10 9 10 10 10 11 10 10 10 10 9 9 9 9 9 9 9 9 8
10 10 10 10 11 11 13 13 13 12 11 11 11 11 10 9 8 9 8 8 8 9 9 9 10 10 9 9 10 10 10 11 10 10 9 9 10 9 9 9 9 9 9 9
9 9 10 11 12 11 11 12 13 10 10 10 12 11 11 11 9 9 9 8 8 8 9 9 9 10 10 9 9 10 10 10 10 10 10 9 10 10 9 9 9 10 10 9
9 10 11 11 12 11 12 11 9 9 8 8 12 10 11 10 10 9 9 10 9 8 9 9 9 9 9 9 10 10 10 10 10 10 10 10 9 10 9 9 9 9 10 9
9 11 11 12 12 12 13 12 12 9 7 8 10 9 10 11 11 9 9 9 8 8 8 9 9 9 9 8 9 9 10 10 10 10 10 9 9 9 9 9 9 9 9 9
9 10 11 12 12 12 12 12 13 13 11 11 10 8 8 10 10 11 10 8 9 8 8 8 8 9 8 8 8 8 8 9 10 9 9 9 9 9 9 9 9 9 9 9
9 9 11 11 12 12 13 13 13 13 9 11 9 10 9 9 10 10 10 9 8 8 8 8 8 8 9 9 9 8 8 9 9 10 9 9 9 9 9 9 9 9 9 9
9 10 10 11 11 11 12 12 13 13 12 9 8 8 10 9 9 10 11 10 9 9 8 8 10 9 9 9 8 8 8 9 9 9 9 9 9 9 9 9 9 9 9 8
9 9 10 10 10 11 11 12 13 13 11 10 9 7 9 10 8 9 10 9 9 9 9 8 7 8 8 9 8 8 8 8 9 9 9 9 9 9 9 10 10 9 9 9
8 8 9 10 10 11 11 10 11 12 12 12 10 7 8 7 8 9 9 9 9 9 9 7 7 8 9 8 8 8 8 8 8 9 9 9 9 8 9 9 10 10 9 9
8 8 8 8 7 8 9 10 10 11 12 11 11 10 7 7 8 9 9 9 9 9 8 8 8 7 7 8 9 9 8 8 8 7 9 8 9 9 8 9 9 10 10 10
7 8 7 8 8 8 9 10 10 11 11 12 11 12 11 9 10 10 8 9 8 9 8 8 9 8 8 8 8 8 8 8 7 7 8 8 8 8 8 8 9 9 10 10
7 7 7 7 7 8 8 9 10 11 11 12 11 9 9 6 7 8 8 8 7 8 7 9 9 9 9 9 9 8 8 7 7 8 7 7 8 8 8 8 9 9 9 9
7 7 7 7 7 7 8 8 9 9 10 12 11 12 9 6 7 7 7 7 6 7 8 10 10 10 10 9 9 9 9 8 8 8 8 7 7 8 9 8 8 8 8 9
7 7 7 7 7 5 6 6 7 9 9 10 9 11 9 8 6 5 5 6 8 7 7 8 7 8 9 9 8 8 8 8 8 8 8 8 7 7 8 8 8 9 8 8
6 6 6 6 5 5 6 6 6 7 8 8 9 8 6 4 5 4 5 4 7 8 7 7 7 7 7 7 7 7 7 7 7 7 8 8 8 8 8 8 8 7 8 8
5 5 5 5 5 3 6 7 6 7 7 8 7 8 8 6 6 5 4 4 4 6 6 7 7 7 6 6 6 6 6 7 6 6 7 7 7 7 8 8 8 8 7 7
5 5 5 5 5 4 4 4 5 6 7 8 8 6 7 8 7 7 6 6 5 5 4 5 5 5 5 5 5 5 5 5 5 5 6 6 6 6 7 7 7 7 7 7
4 4 4 4 4 4 4 5 4 6 6 6 6 6 7 6 6 6 6 5 5 5 5 5 4 4 4 5 5 5 5 5 5 5 6 6 6 6 6 7 7 7 7 7
3 3 4 4 4 4 4 5 5 5 5 5 5 5 5 6 6 6 6 5 4 4 4 3 4 4 4 4 4 4 5 5 5 6 6 6 6 6 6 7 7 7 7 7
3 3 3 3 2 3 3 4 5 5 5 4 4 4 4 4 4 4 4 3 4 3 3 3 3 3 4 4 4 4 4 4 5 5 5 6 6 6 6 6 7 7 7 7
2 2 2 2 2 2 2 3 3 4 3 3 3 3 3 3 2 1 2 3 3 3 3 3 3 3 3 3 4 4 4 4 5 5 5 6 6 6 6 6 6 6 6 7
2 2 2 2 2 2 1 1 2 3 3 3 3 3 3 2 2 2 1 1 1 2 2 2 2 2 2 2 3 3 3 3 3 4 4 4 5 5 5 5 5 5 5 5

GFSCGP_700_temp_114.txt.gz
Temp
8 9 10 10 10 11 12 11 11 11 11 11 11 10 9 9 8 8 8 8 9 9 9 8 8 8 9 9 9 9 9 9 8 9 9 8 8 8 8 8 8 8 9 8
8 9 10 10 10 11 11 11 11 11 11 11 10 10 9 9 9 9 8 9 9 8 9 9 9 8 9 9 9 10 9 9 9 9 9 8 8 8 9 8 8 8 8 8
8 9 9 10 10 11 11 11 12 11 11 11 10 10 9 8 8 8 8 8 9 9 9 9 9 9 9 9 9 10 10 9 9 9 9 9 9 9 9 9 9 9 8 8
8 9 9 10 10 11 12 12 12 12 12 11 10 10 11 10 9 9 8 8 9 9 9 9 9 9 9 9 9 9 10 10 9 9 9 9 9 9 9 9 9 9 9 8
9 9 9 9 10 10 11 12 12 12 11 11 10 11 12 11 10 9 9 8 8 9 9 9 9 9 9 9 10 9 10 10 10 9 9 9 9 9 9 9 9 9 8 8
8 8 9 10 10 10 11 12 12 11 10 9 11 11 11 11 11 10 9 8 8 9 9 9 9 9 9 9 9 10 10 10 10 10 9 9 9 9 9 9 9 9 9 9
8 9 9 10 10 10 11 11 9 8 7 8 11 10 12 11 11 10 10 9 9 9 9 9 8 9 9 9 9 9 10 10 10 10 9 9 8 9 9 9 9 9 9 9
9 10 10 10 10 11 11 12 11 8 6 8 10 10 11 11 11 10 9 9 9 9 9 9 9 9 9 8 8 8 9 10 10 10 9 9 9 8 9 9 9 9 9 9
9 10 10 10 11 12 11 11 12 11 10 9 9 9 11 12 11 10 9 9 8 8 9 9 9 9 9 8 8 8 8 8 9 9 9 9 9 8 8 8 9 9 9 9
9 9 10 10 11 11 11 13 11 11 7 9 7 8 11 12 11 10 9 9 9 9 9 8 9 9 9 9 8 8 8 8 9 9 9 9 9 9 8 9 8 9 9 9
9 9 10 10 10 11 12 11 12 12 12 7 6 9 12 12 11 11 10 10 9 8 9 8 8 9 8 8 8 8 8 8 8 9 9 9 9 9 9 9 8 9 8 9
9 9 9 10 10 10 11 11 12 13 10 11 10 9 11 11 10 10 9 10 10 8 8 9 9 8 9 8 8 8 8 8 8 8 9 9 9 9 9 9 8 8 8 8
9 9 9 10 10 10 10 10 11 11 11 12 11 10 11 11 9 9 9 10 9 9 9 9 9 9 8 9 8 9 8 8 8 8 9 8 8 9 9 9 8 8 8 8
8 9 9 8 8 8 9 10 10 11 11 11 12 12 12 12 11 9 9 9 9 9 9 9 9 8 8 8 8 8 7 7 7 8 8 8 8 8 8 8 9 9 9 8
7 8 8 8 8 8 7 9 10 11 11 12 12 12 12 12 12 11 10 9 9 8 8 8 8 8 8 7 7 7 8 8 8 8 8 8 8 8 8 8 9 9 9 9
7 7 7 7 8 8 8 8 9 10 11 11 12 12 12 12 11 11 10 9 9 7 7 8 8 7 7 8 7 7 6 7 7 7 7 9 9 8 8 8 8 8 9 9
6 7 6 7 7 7 8 7 7 8 9 10 12 12 12 12 11 10 10 8 9 8 7 7 7 8 8 8 7 7 7 6 6 7 8 8 9 7 7 8 8 8 8 8
6 6 6 6 6 5 7 7 6 7 8 9 10 11 12 11 8 8 8 6 6 6 6 6 6 7 7 8 7 7 7 7 7 7 7 7 7 6 7 7 8 8 8 8
6 6 6 6 5 6 7 7 7 6 7 7 8 9 9 8 6 6 5 5 5 6 5 6 6 7 6 7 7 7 7 8 7 7 7 7 7 6 7 7 8 8 8 8
6 6 6 6 5 4 6 6 7 7 7 7 7 7 8 8 6 6 5 5 5 4 5 5 5 6 6 6 6 6 6 6 7 7 6 7 7 7 7 7 7 8 8 8
5 5 5 5 5 4 6 6 6 6 7 7 6 7 7 7 7 6 4 4 4 4 4 4 4 6 5 5 5 6 6 6 6 5 6 6 7 7 7 7 7 7 7 7
4 4 4 4 4 4 4 4 5 5 6 7 6 6 7 6 6 6 5 3 4 3 4 4 4 4 4 4 4 4 4 4 5 5 5 5 5 6 6 6 6 7 7 7
4 4 4 4 4 4 4 4 4 5 6 6 6 6 6 6 5 5 5 4 3 3 4 4 4 4 4 4 4 4 4 4 4 5 5 5 5 6 6 6 6 6 7 7
3 3 3 4 3 4 4 4 4 4 5 5 4 4 4 4 4 4 4 3 3 3 3 3 3 3 4 4 4 4 4 4 4 5 5 5 5 6 6 6 6 6 7 7
3 3 3 3 3 3 3 3 4 3 4 4 4 3 4 2 2 2 2 2 1 2 2 2 2 2 2 3 4 4 4 4 4 4 4 5 5 5 6 6 6 6 6 7
2 2 2 2 2 2 2 2 2 3 3 3 3 3 3 2 2 2 1 0 1 1 2 2 2 1 2 2 2 2 3 3 4 4 4 4 5 5 5 5 5 5 5 5

GFSCGP_700_temp_117.txt.gz
Temp
9 8 9 9 10 11 11 11 12 11 11 10 10 10 10 10 9 8 8 9 9 9 8 8 8 8 9 9 9 9 8 8 8 8 8 8 8 8 8 8 8 8 8 8
9 8 9 9 10 11 11 12 11 11 11 11 11 10 10 10 10 9 8 8 9 8 8 8 8 8 8 9 9 9 9 8 8 8 8 8 8 8 8 8 8 8 8 8
8 8 9 9 10 11 12 12 11 11 11 10 10 9 9 9 9 8 8 8 9 9 8 8 8 8 9 9 9 9 9 8 8 9 9 9 9 9 8 8 8 8 8 8
8 8 9 9 10 11 11 12 11 11 11 11 11 11 9 9 9 9 9 8 9 9 9 8 8 9 9 9 10 10 9 9 8 8 8 8 8 8 9 9 9 8 8 8
8 8 8 9 9 10 11 11 12 12 11 11 11 11 10 10 9 9 10 9 9 9 9 9 9 9 8 8 9 9 10 9 9 8 8 8 8 9 9 9 9 9 9 9
8 8 8 9 9 10 10 11 11 11 10 11 11 11 10 11 12 10 9 9 9 9 10 9 9 9 8 8 9 9 10 9 9 9 8 8 8 8 9 9 9 9 9 9
8 8 8 9 9 9 9 10 10 10 10 13 10 10 12 11 11 10 10 10 9 9 9 9 9 9 8 8 8 9 9 9 9 9 9 8 8 9 9 9 9 9 9 9
8 9 9 9 9 9 10 10 13 12 12 13 10 11 11 12 12 12 11 9 9 9 9 9 9 9 8 8 8 8 9 9 9 8 8 8 8 8 8 9 9 9 9 9
8 9 9 10 10 10 9 9 11 11 10 12 10 12 12 12 12 12 12 9 9 9 9 10 9 9 9 8 8 8 8 8 9 8 8 8 8 8 8 8 9 9 9 9
9 9 10 10 10 10 10 11 11 11 12 13 10 10 12 13 13 12 12 11 9 9 9 9 10 9 9 8 8 8 8 8 8 9 8 8 8 8 8 8 9 9 9 9
9 9 10 10 10 10 10 10 11 11 12 14 13 12 13 13 13 12 12 11 11 9 8 9 10 10 9 9 8 8 8 8 8 8 8 8 8 8 8 8 8 8 9 9
9 9 10 9 10 11 11 11 11 12 11 11 12 12 13 13 13 12 12 11 11 10 9 9 10 10 10 10 9 8 8 7 7 8 9 9 8 8 8 8 8 8 8 8
9 9 10 9 9 9 9 10 10 11 12 11 13 12 13 13 12 12 11 11 11 10 10 9 9 8 8 9 9 9 8 8 7 8 8 9 8 8 8 8 8 8 8 8
8 8 9 10 9 9 9 9 10 11 11 12 12 13 13 13 13 12 11 10 11 10 10 10 9 10 10 9 8 8 8 8 7 8 8 8 9 9 9 9 9 8 8 8
7 8 8 8 9 8 9 9 10 10 11 12 12 13 13 13 13 12 10 10 10 9 10 9 8 9 9 9 8 7 7 8 8 8 8 7 8 8 8 9 9 9 9 9
7 7 7 7 7 7 7 9 9 10 10 11 12 12 12 12 12 12 11 9 9 8 8 8 8 8 9 8 7 7 7 7 7 8 7 7 7 8 8 8 8 8 9 9
7 7 6 7 7 6 7 8 8 8 9 10 10 12 12 12 12 12 10 9 10 9 9 8 7 8 8 8 7 7 6 7 6 7 7 7 7 7 8 8 8 8 8 8
7 7 7 7 6 7 7 7 7 7 8 9 9 10 11 11 10 11 9 8 8 7 8 7 7 7 7 7 6 7 7 6 7 6 6 6 6 6 7 8 8 8 8 8
6 6 6 6 6 6 6 7 7 7 7 7 7 9 9 9 10 9 7 7 7 6 6 6 7 6 7 7 7 6 6 6 6 6 6 6 7 7 8 7 7 7 7 7
6 6 5 6 6 7 6 6 6 7 7 7 7 8 9 9 9 9 6 5 5 5 6 5 6 6 7 6 6 6 6 6 7 7 6 6 7 7 7 7 6 6 7 7
5 5 5 5 5 5 6 6 6 6 7 7 7 7 7 7 7 7 5 5 5 4 4 5 5 6 6 6 6 6 6 6 6 7 6 7 6 7 7 6 6 7 7 7
5 5 4 4 4 5 5 4 4 5 6 6 7 6 6 6 6 6 5 5 4 4 4 4 5 5 5 5 5 5 6 6 6 6 5 6 6 6 6 6 6 6 7 7
4 4 4 4 4 4 4 4 4 5 5 6 6 6 6 5 5 5 5 3 3 3 3 3 3 4 3 4 3 3 4 4 4 5 5 4 5 5 5 5 5 6 6 6
3 3 4 4 4 4 4 4 4 4 5 5 5 6 5 4 3 3 4 3 3 3 2 2 2 2 2 3 3 3 3 4 4 4 4 5 5 5 5 6 6 6 6 6
2 3 3 3 3 3 3 3 3 3 4 5 4 4 4 4 3 4 3 2 2 2 2 2 2 2 2 2 2 3 3 4 4 4 4 4 4 5 5 5 5 6 6 6
2 2 2 2 2 2 2 2 2 3 3 3 3 3 3 3 2 2 2 2 0 -0 1 1 1 1 1 2 2 2 2 3 3 3 4 4 4 4 4 5 5 5 5 6

GFSCGP_700_temp_123.txt.gz
Temp
10 11 12 14 14 13 15 14 13 13 12 11 10 10 10 9 9 9 8 9 9 9 8 9 8 8 8 7 9 9 9 9 9 9 9 9 6 7 6 6 9 9 8 8
11 12 13 14 14 14 14 14 13 11 13 12 10 10 9 9 10 10 9 9 9 10 8 8 8 8 7 8 9 9 9 9 9 8 7 7 7 7 7 8 9 8 9 8
12 13 13 14 13 13 15 16 14 14 13 13 11 10 10 9 9 9 9 10 9 9 10 9 8 8 8 7 8 9 9 9 9 9 8 8 8 8 9 8 9 9 9 9
13 14 13 13 13 14 15 15 14 10 14 13 13 11 10 9 9 9 9 10 10 8 9 9 9 8 8 8 6 9 9 9 9 9 9 9 8 8 8 8 7 8 9 9
13 13 13 12 13 14 13 14 15 14 14 14 14 12 10 10 9 10 10 10 10 10 9 9 10 9 9 9 7 9 10 9 9 9 9 9 8 8 8 9 8 9 9 9
13 12 12 13 13 13 14 13 14 15 16 17 15 17 11 11 11 9 9 9 10 10 10 9 9 9 8 8 8 8 10 10 9 9 9 9 9 8 8 9 9 9 9 9
12 12 12 13 13 13 13 14 16 16 16 18 18 18 15 12 13 11 10 9 10 10 10 10 9 9 9 9 8 7 10 10 10 9 9 9 9 8 8 9 9 7 8 9
13 12 12 12 13 14 13 14 17 16 18 20 17 17 15 14 13 12 10 9 9 9 9 9 9 8 8 10 8 7 10 10 10 10 9 9 9 9 9 9 8 9 7 8
14 14 13 13 13 13 14 14 16 17 14 18 16 17 14 15 13 12 11 10 9 9 9 8 9 8 9 8 9 7 10 10 10 10 10 9 9 9 9 9 8 9 9 9
13 14 13 13 13 13 14 15 15 16 17 18 15 14 13 14 14 12 12 12 10 9 9 10 9 9 9 8 8 8 9 9 10 10 10 10 10 10 9 9 9 9 9 10
12 13 13 13 12 14 13 14 14 16 16 18 17 16 14 15 14 13 12 12 11 10 9 10 9 8 9 9 9 7 9 9 9 10 10 10 10 10 9 9 9 9 9 10
11 13 12 13 13 13 14 14 14 15 16 16 17 13 13 13 13 13 12 12 11 11 9 9 9 9 9 10 10 9 9 9 9 9 10 10 10 10 10 9 9 9 9 9
11 12 14 13 13 13 13 14 15 15 16 16 18 16 13 13 13 13 12 11 11 10 9 8 8 8 8 9 10 9 9 9 9 9 9 10 10 10 10 10 9 9 9 9
10 12 12 9 10 12 13 13 14 14 16 17 17 13 13 12 12 13 12 11 10 9 9 9 9 8 8 9 9 9 9 9 8 9 9 9 10 10 10 10 10 9 9 9
9 11 11 11 11 11 12 13 13 13 14 15 16 14 13 13 12 14 13 11 10 9 9 9 9 9 8 9 9 9 9 8 9 9 9 9 9 9 9 10 9 9 9 8
9 10 10 10 11 11 12 12 12 13 13 14 14 14 12 11 10 13 13 12 11 10 9 9 9 9 9 9 9 8 9 9 9 9 9 8 8 8 9 9 9 9 9 9
9 10 10 10 11 11 11 12 12 12 13 13 13 11 11 10 9 12 13 12 11 10 10 10 10 9 9 9 9 9 9 9 9 9 8 8 8 8 8 8 9 9 9 9
9 9 9 10 10 11 12 11 11 11 10 10 11 10 9 9 9 12 12 12 11 11 11 11 11 10 10 9 9 8 8 9 9 8 7 7 8 7 8 8 8 8 8 8
8 8 9 10 11 9 8 9 10 10 10 9 9 9 9 9 11 11 11 10 9 10 11 10 10 10 10 9 9 9 8 9 7 8 7 7 7 7 7 7 8 8 8 8
8 8 8 10 10 11 5 7 7 8 9 8 8 8 7 9 9 10 9 11 11 10 10 9 9 9 9 8 8 8 8 8 7 7 8 7 6 6 6 7 6 7 7 7
8 7 8 9 9 8 6 6 7 8 7 6 6 7 6 7 7 9 7 10 9 9 8 8 9 8 8 8 7 6 7 7 7 7 6 5 5 5 5 6 6 6 5 6
7 8 8 9 8 6 5 6 7 5 5 5 5 6 5 7 7 7 7 8 7 7 7 7 7 8 7 7 7 7 7 7 7 6 7 6 5 5 5 5 4 5 5 5
5 6 6 5 5 5 5 5 6 5 4 4 6 5 6 5 6 6 7 6 6 6 6 6 6 6 6 7 7 6 6 5 6 6 6 5 5 5 5 5 5 5 5 5
4 5 5 6 4 5 4 5 5 5 4 5 5 5 5 5 6 6 6 5 5 5 4 4 5 5 5 5 5 6 6 5 5 5 5 5 6 5 5 5 6 5 5 4
5 3 4 5 5 3 4 4 3 4 5 5 5 4 4 4 5 5 5 5 4 4 4 4 3 3 3 4 4 4 4 4 4 4 3 4 4 4 5 5 4 5 5 5
4 4 5 5 4 4 4 3 3 3 3 4 4 3 3 3 4 4 4 4 4 3 3 3 1 1 1 1 1 2 2 3 2 3 3 3 4 4 4 4 4 5 5 5

GFSCGP_700_temp_129.txt.gz
Temp
10 10 12 13 13 13 14 14 13 12 11 9 11 11 10 10 10 11 10 10 10 10 10 9 9 9 8 8 9 8 9 9 9 9 9 9 8 8 9 9 9 9 9 8
10 11 13 13 14 14 15 14 12 11 10 10 10 11 11 10 10 10 10 10 10 9 9 9 9 9 9 8 9 10 9 9 9 10 9 9 8 8 9 10 9 9 9 9
11 13 13 13 14 14 14 14 12 12 11 10 10 9 9 10 9 10 10 10 10 9 9 9 9 8 9 8 10 10 9 9 9 9 10 9 9 9 9 9 10 9 9 10
12 13 13 14 14 14 13 13 12 12 12 9 8 9 9 9 10 10 10 10 10 9 8 9 8 9 9 9 10 9 9 9 9 9 10 9 9 8 8 8 9 9 9 10
12 13 14 14 14 15 12 13 13 12 12 11 7 7 10 9 11 11 11 9 10 10 10 9 9 8 9 9 10 9 9 9 9 9 9 10 9 10 9 9 10 10 9 10
13 14 14 15 15 15 14 12 12 11 10 9 11 8 10 12 14 14 12 11 10 10 9 9 8 9 9 8 9 10 9 10 10 10 10 10 10 10 10 10 9 10 10 10
13 14 15 15 14 14 14 12 12 10 11 12 12 10 13 14 14 14 14 12 12 11 10 9 9 9 9 9 10 10 9 10 10 10 10 10 10 10 10 10 10 10 10 10
13 14 14 14 14 14 15 15 14 9 10 12 14 13 11 14 12 12 12 12 11 11 10 9 10 8 9 9 10 10 9 9 10 10 10 10 10 10 10 10 10 10 10 10
13 14 14 14 14 14 15 15 15 13 14 13 14 12 12 13 12 12 10 10 10 11 10 10 9 9 9 9 9 10 10 9 10 10 10 10 10 10 10 10 10 11 10 12
13 13 14 14 14 14 14 15 15 15 12 13 16 13 14 14 13 12 11 10 9 11 10 9 9 9 9 9 8 10 10 9 10 10 10 10 10 10 10 10 10 11 11 11
12 13 13 14 14 14 14 14 14 15 16 12 11 14 16 13 13 13 13 12 10 11 11 9 9 10 9 8 8 10 9 10 10 10 10 10 10 10 10 10 10 10 11 11
12 12 13 14 14 14 14 15 15 15 15 16 16 13 13 14 14 13 13 13 12 12 11 10 10 10 9 9 9 9 9 10 10 10 10 10 10 10 10 10 10 10 10 11
12 12 12 12 14 14 14 14 15 15 15 16 15 13 13 13 12 11 11 12 12 12 10 10 10 9 10 9 9 9 9 10 10 9 10 10 10 10 10 10 10 10 10 10
11 11 11 9 10 11 11 12 14 14 15 16 13 13 11 12 12 11 11 11 12 11 11 9 9 10 10 9 8 8 9 9 9 9 9 10 10 10 10 10 10 10 9 10
10 11 11 11 11 11 11 12 13 14 15 15 13 12 12 12 12 10 11 12 12 11 10 9 9 9 9 9 9 9 9 9 10 9 9 10 10 10 10 10 10 10 10 10
10 10 10 11 11 11 11 12 12 13 14 12 13 12 10 11 11 11 11 12 10 9 10 9 10 9 9 9 9 8 8 9 8 8 8 9 10 9 9 9 10 10 10 10
10 10 10 10 11 12 12 11 12 12 12 13 13 10 10 11 11 11 11 10 11 8 9 9 9 10 9 9 8 8 9 9 9 9 9 9 9 9 9 9 9 10 10 10
10 10 10 10 10 9 10 11 11 10 9 10 11 9 10 10 11 11 9 9 9 9 9 9 9 9 10 9 9 9 9 9 9 9 9 8 9 9 9 9 9 9 9 9
9 9 9 9 9 10 10 10 10 9 9 8 8 8 8 9 9 10 9 9 8 8 9 8 9 8 8 9 8 9 9 9 9 8 8 8 8 9 9 9 8 8 8 8
9 9 9 9 9 8 9 9 9 9 8 8 7 7 7 7 8 9 9 9 9 9 8 8 8 8 8 8 9 9 9 9 9 8 9 9 9 9 9 8 8 8 8 8
8 8 8 9 9 8 7 7 8 8 7 7 7 7 6 7 8 9 9 9 10 10 9 8 9 9 9 9 9 9 9 8 8 8 8 8 8 9 9 7 7 7 7 8
7 7 7 7 7 7 6 7 7 6 6 6 6 7 7 6 7 7 8 8 8 9 8 8 8 9 8 9 8 9 9 6 7 7 7 7 8 8 8 7 7 6 7 7
7 7 7 6 6 5 6 5 5 6 5 6 7 6 6 6 7 7 7 7 7 7 7 7 7 7 7 8 8 8 7 6 6 6 7 7 7 7 7 7 6 7 6 6
6 6 6 6 5 5 5 5 5 5 5 5 5 5 6 5 5 6 6 7 7 7 7 7 6 6 5 6 6 7 6 6 5 6 5 5 5 7 6 6 6 5 5 5
6 6 6 5 5 5 5 5 4 4 5 4 4 4 4 5 5 5 5 5 6 6 6 6 6 6 5 5 5 5 5 5 5 5 5 5 5 5 5 5 4 5 5 5
5 5 5 4 4 3 3 4 4 5 4 4 4 4 4 4 4 4 5 5 5 5 5 5 5 5 5 4 4 4 5 5 5 4 5 4 4 4 4 4 4 4 4 4

GFSCGP_700_temp_132.txt.gz
Temp
10 11 12 13 12 12 12 11 11 10 10 10 10 9 10 10 10 10 10 9 10 10 10 9 9 9 9 9 7 9 10 9 9 9 8 8 9 8 8 8 8 9 8 9
9 10 13 12 12 11 12 12 11 10 9 9 9 9 9 9 10 10 10 9 9 10 10 9 9 9 9 9 8 8 9 9 9 9 8 8 8 7 8 9 8 8 9 9
10 13 12 12 12 11 11 12 11 11 11 10 9 9 10 10 10 10 9 10 10 10 10 9 9 9 9 9 9 9 8 9 9 9 9 9 9 8 9 9 9 8 8 8
10 12 12 12 12 12 13 11 12 12 11 11 10 8 9 9 10 9 9 9 9 10 10 9 9 9 9 9 9 9 8 9 9 9 9 9 8 8 8 8 9 10 9 9
12 12 12 13 13 13 12 12 12 11 11 9 9 9 10 9 10 10 10 10 9 10 10 10 10 9 8 9 9 9 8 9 9 9 9 10 9 8 8 8 9 9 9 9
11 12 12 13 14 12 11 12 10 10 10 9 10 10 11 11 14 10 10 10 9 9 9 10 10 9 8 9 9 9 9 9 9 9 9 9 9 9 8 9 9 9 9 9
12 12 13 13 13 13 12 12 10 9 8 10 11 11 12 11 11 11 10 10 9 10 9 10 10 10 9 10 9 9 9 9 9 9 9 10 9 9 9 8 8 10 10 9
12 13 14 14 14 13 12 11 12 8 8 10 9 11 12 13 14 13 11 10 10 9 9 9 10 10 10 9 9 8 9 9 9 9 9 10 10 9 9 9 9 9 10 10
12 13 13 13 14 14 13 13 13 13 13 12 12 11 11 13 13 13 12 12 10 9 9 9 9 9 9 10 10 9 9 10 9 9 9 10 10 10 9 9 9 9 9 10
12 13 13 14 14 14 14 14 13 14 11 11 12 12 10 14 14 14 14 14 13 11 10 9 10 10 10 10 10 9 9 10 9 9 9 9 10 10 10 10 10 10 9 9
12 12 13 13 14 14 14 14 14 14 14 11 11 13 12 14 14 14 14 12 13 13 12 11 10 10 10 9 10 9 9 9 9 10 9 9 9 10 10 10 10 10 10 10
12 12 12 13 13 14 14 13 14 14 14 14 14 13 14 14 14 13 13 11 12 12 13 12 10 10 10 10 10 9 9 9 9 10 10 10 9 9 10 10 10 10 9 9
11 11 12 13 13 14 13 12 13 14 14 15 13 13 13 13 13 12 12 11 11 12 12 11 10 9 9 9 9 9 10 9 9 9 10 10 9 9 9 9 10 10 10 9
11 11 11 10 10 11 12 12 12 12 13 13 13 13 12 12 13 13 12 12 12 12 12 11 11 9 9 9 9 10 9 9 8 8 10 10 10 10 10 10 10 10 9 9
10 10 10 11 11 11 12 11 11 12 13 14 12 12 11 11 12 12 12 12 12 12 12 11 11 10 9 8 9 9 8 9 8 8 9 10 10 10 9 9 10 10 10 9
10 10 10 11 11 11 11 11 11 11 12 12 11 11 11 11 11 11 12 12 12 12 12 12 10 10 9 9 9 8 9 8 8 8 9 9 9 10 9 10 10 10 9 9
9 10 10 10 10 11 10 8 10 10 10 10 10 9 10 10 11 11 12 12 12 11 10 10 9 9 8 8 8 8 8 8 8 8 8 8 8 8 9 9 9 9 9 9
9 9 9 9 10 7 7 8 9 9 8 8 8 8 8 9 10 11 11 9 10 8 8 8 7 8 8 8 8 8 9 9 8 8 7 8 7 8 9 8 8 8 8 8
9 9 9 9 9 9 9 8 9 9 7 7 8 7 8 8 9 9 10 9 9 9 9 8 6 8 6 8 8 8 8 8 8 8 8 8 7 8 8 8 8 8 8 8
9 9 9 9 9 8 8 8 8 8 8 7 7 7 7 8 8 9 9 9 9 9 10 10 9 9 8 8 8 8 8 8 8 8 8 8 8 8 8 8 8 8 8 8
8 8 8 8 8 7 7 8 8 8 6 6 6 6 7 7 8 9 9 10 10 10 10 10 10 9 9 8 8 8 8 8 8 9 9 8 8 8 8 8 9 9 8 7
7 7 7 7 7 6 6 7 7 6 6 6 6 6 6 6 7 7 8 8 8 9 9 8 9 9 9 9 9 8 8 8 8 8 8 8 8 8 8 9 9 8 7 7
6 6 6 6 7 6 6 6 6 6 6 5 5 6 6 6 6 6 7 7 7 7 8 8 7 8 8 8 8 8 8 8 8 8 7 7 7 7 7 7 8 8 7 7
6 6 6 6 5 5 5 5 6 5 5 6 6 5 5 5 5 5 6 6 6 7 7 7 7 7 7 7 7 7 7 7 7 7 5 5 6 6 6 7 7 7 7 6
6 6 6 5 5 5 5 4 5 5 5 5 5 5 5 5 5 5 5 5 5 5 6 6 6 6 5 5 5 6 6 6 6 5 5 5 5 5 6 6 6 6 6 6
6 5 5 5 5 4 4 4 4 5 4 4 5 5 4 4 4 5 5 5 5 5 5 5 5 5 5 5 4 4 4 4 4 4 4 4 4 4 5 5 5 6 6 5

GFSCGP_700_temp_135.txt.gz
Temp
9 10 11 12 11 11 10 10 9 9 9 8 8 9 9 9 8 9 9 9 9 9 9 9 9 9 9 9 9 9 9 10 10 9 8 9 9 9 8 8 8 8 9 9
9 10 12 11 11 11 11 11 10 8 8 9 8 8 8 8 8 9 9 9 9 9 10 9 9 9 8 8 9 9 9 9 10 9 9 9 9 9 8 8 8 8 8 8
9 11 11 11 11 11 11 11 12 10 9 8 9 8 8 8 8 8 9 9 9 9 10 10 9 9 8 8 8 9 9 9 10 10 10 9 9 9 9 8 9 9 8 8
10 11 11 11 11 10 11 11 11 11 10 9 9 9 9 8 8 8 9 9 10 9 9 9 10 9 8 8 7 8 9 9 9 10 10 9 8 9 8 8 8 8 8 8
10 11 11 11 12 10 10 11 12 11 10 10 8 10 11 9 9 9 9 9 9 9 9 10 10 9 8 8 8 8 9 9 9 9 9 9 9 8 8 8 9 8 8 9
10 10 11 12 11 11 10 10 10 10 10 9 10 10 11 9 11 10 9 9 10 9 9 9 9 9 9 8 8 8 9 8 9 9 9 9 9 9 9 9 9 9 9 9
11 12 12 12 10 11 11 11 9 9 9 8 10 9 12 12 12 12 11 9 9 9 9 9 9 10 9 9 8 9 9 9 9 9 9 9 9 9 8 9 9 9 9 9
11 13 13 13 12 11 11 12 11 9 8 10 10 9 12 11 12 13 11 11 10 9 8 9 9 9 9 9 9 9 9 9 9 9 8 8 8 8 8 8 8 9 9 9
11 12 12 13 13 12 12 12 12 10 10 10 10 11 13 12 14 14 13 12 10 10 10 10 9 9 9 9 9 9 9 9 9 9 9 8 8 8 9 9 8 9 9 9
11 11 13 13 13 12 13 12 10 9 9 10 10 12 14 14 14 13 12 13 13 12 11 10 10 9 9 9 9 9 9 9 9 9 9 9 8 8 9 9 9 9 9 9
12 11 12 13 13 13 13 12 13 12 13 11 8 12 14 14 14 13 12 12 12 12 10 11 10 10 11 10 9 9 9 9 9 10 9 9 9 9 9 9 9 9 9 9
11 12 12 12 13 13 13 12 13 13 13 13 13 13 14 14 13 13 11 12 12 11 11 10 10 10 10 10 9 10 9 9 9 9 10 10 9 9 9 9 9 9 9 9
11 11 12 11 11 12 11 12 13 13 13 13 12 13 13 13 12 12 11 12 12 11 12 10 10 10 10 10 10 9 10 9 8 8 9 10 10 9 9 9 9 9 9 9
11 10 11 10 9 10 10 11 12 13 13 13 13 14 12 11 12 12 12 12 12 12 12 11 11 10 10 10 10 10 10 9 9 8 9 9 9 10 9 9 8 9 9 9
10 10 10 10 9 9 11 11 12 13 13 13 14 12 12 12 12 12 12 12 12 12 12 11 11 11 11 10 9 9 9 9 9 8 9 9 9 9 9 10 9 9 9 9
10 10 10 10 9 10 10 10 11 12 13 12 11 11 10 11 11 11 12 12 12 13 13 13 12 12 10 9 8 8 8 8 8 8 8 8 8 9 9 9 10 10 9 9
10 10 10 10 9 10 9 9 9 9 10 10 11 10 10 10 11 11 12 12 12 12 11 11 10 10 9 9 9 8 8 8 8 8 7 7 7 8 8 8 8 9 9 9
9 9 10 10 9 7 8 7 7 9 9 9 9 9 10 10 10 10 10 10 10 9 9 9 9 9 9 9 8 8 8 8 8 8 7 7 7 7 7 8 8 8 8 8
9 9 9 9 8 7 7 8 7 8 8 8 8 9 9 9 9 9 9 8 8 8 9 8 9 9 9 8 7 8 8 8 8 8 7 7 7 7 7 7 8 8 7 7
9 9 9 9 8 7 7 7 8 8 7 7 7 8 8 9 8 9 9 9 9 9 9 8 8 8 8 9 9 7 7 7 7 7 7 7 8 7 6 7 7 7 7 7
8 8 8 8 8 8 8 8 8 7 8 7 7 7 8 8 8 8 9 9 8 9 9 8 8 8 7 7 7 7 8 7 8 8 7 7 8 7 7 7 7 7 8 8
7 7 7 7 7 7 7 7 7 8 8 7 6 6 6 7 8 8 8 8 8 8 8 8 8 7 7 7 7 7 7 7 8 8 7 7 7 7 7 7 7 7 8 8
6 6 7 7 6 6 6 6 6 6 6 6 6 6 6 6 6 7 7 7 7 7 7 7 7 7 7 7 7 7 7 7 7 6 6 6 7 7 6 7 7 7 7 8
6 6 6 6 6 6 5 5 6 6 5 5 5 5 6 6 6 6 6 6 6 6 6 7 7 6 6 7 7 7 7 6 7 6 6 5 5 5 6 6 6 6 7 6
6 6 6 6 5 5 5 5 4 5 5 4 5 5 5 6 6 6 6 6 5 5 5 6 6 6 6 6 6 6 6 6 5 5 5 4 5 4 5 6 6 6 6 6
6 6 6 5 5 5 4 4 4 4 4 4 4 4 4 5 5 5 5 5 5 4 5 5 5 4 5 5 5 5 5 5 5 4 3 4 4 3 4 4 4 4 4 5

GFSCGP_700_temp_138.txt.gz
Temp
9 9 10 10 10 10 10 10 9 8 8 8 8 8 8 8 9 9 9 9 10 9 9 9 8 8 8 9 9 9 9 9 9 9 8 8 8 8 8 8 8 8 7 8
9 10 10 10 10 10 11 10 10 9 8 7 8 8 8 8 8 9 8 9 9 9 9 9 9 8 8 8 8 9 9 9 9 8 7 8 8 8 8 8 8 8 8 8
9 10 10 10 10 11 10 10 10 9 9 8 8 8 8 8 8 8 8 9 9 9 9 9 9 9 8 8 8 9 9 9 9 9 8 8 8 8 9 9 8 8 8 8
9 10 10 10 10 11 10 10 9 10 9 9 8 8 8 8 8 8 8 9 9 9 9 9 9 9 9 8 8 8 9 9 8 9 8 8 8 8 8 8 8 8 8 8
9 10 10 10 11 10 10 10 10 10 10 9 9 8 10 9 9 9 8 9 10 9 9 9 10 9 9 9 9 8 9 9 8 8 8 8 8 8 7 8 8 8 8 9
9 9 10 11 11 10 10 10 9 10 9 8 9 9 11 11 12 10 9 9 9 10 10 9 9 8 9 8 8 9 9 9 8 8 8 8 8 8 8 8 8 8 9 9
10 11 11 10 11 10 10 10 9 8 8 8 10 8 12 12 11 11 11 10 10 10 10 10 9 9 9 9 8 9 9 9 9 8 8 8 8 8 8 8 8 8 9 9
10 11 12 12 12 12 11 11 11 9 7 8 9 9 12 12 11 11 10 10 10 10 10 10 10 9 9 9 9 9 9 9 9 9 9 9 9 8 8 8 8 8 8 8
10 11 12 12 12 12 10 10 10 10 9 9 10 11 12 11 11 11 12 12 11 11 11 11 10 9 9 9 9 9 9 9 9 9 9 9 9 8 8 7 8 8 8 8
10 11 12 12 11 11 11 10 10 10 8 8 10 11 12 12 12 13 12 12 12 10 11 10 10 10 9 9 9 9 8 9 9 9 9 9 9 9 9 8 8 8 8 8
11 11 11 11 11 11 10 11 11 10 10 8 9 12 12 12 12 12 12 12 11 11 10 10 10 9 9 9 8 9 9 9 9 9 9 9 9 9 9 9 8 8 8 8
11 11 11 10 11 11 10 11 12 12 10 11 12 12 12 12 11 11 11 11 11 11 11 10 10 9 9 9 9 8 9 9 9 9 9 9 9 9 9 9 8 8 8 8
11 11 11 10 10 11 12 12 12 13 13 13 11 12 12 11 11 11 11 11 12 11 10 10 10 9 9 9 9 8 8 9 9 9 9 9 9 9 9 9 9 9 8 8
10 10 11 10 9 11 11 11 12 13 13 13 13 12 11 11 11 11 11 12 12 11 11 10 10 9 9 9 9 9 8 8 8 8 8 8 9 9 9 9 9 9 9 8
9 9 10 9 9 10 10 11 12 13 13 13 12 12 10 10 11 11 11 11 11 12 12 12 11 11 10 10 9 9 8 8 8 8 9 8 9 9 9 9 9 9 9 9
9 9 9 10 9 8 9 9 10 11 12 13 12 11 10 10 11 11 11 12 11 11 11 11 11 11 11 10 10 9 9 8 8 8 8 8 8 8 9 9 9 9 9 9
9 9 9 8 9 9 8 9 9 9 10 10 9 10 10 10 11 11 11 12 12 12 11 11 10 10 10 10 10 9 9 9 8 8 8 8 8 8 8 8 8 8 9 8
9 8 10 8 8 7 8 8 8 9 8 9 9 10 9 10 10 10 10 11 11 10 10 10 10 9 9 9 8 9 9 8 8 8 8 8 7 8 7 6 8 7 8 8
9 9 9 9 7 7 7 7 8 9 8 9 9 9 9 9 9 10 10 9 9 9 9 10 10 9 9 8 8 7 8 9 8 8 8 8 7 7 7 6 7 7 7 7
9 9 9 8 8 6 8 8 8 8 8 8 9 9 9 9 9 9 9 9 9 9 9 10 9 9 8 7 8 8 9 9 8 8 7 7 6 6 7 6 6 7 7 7
8 8 9 9 8 8 8 7 7 7 8 8 8 8 8 8 8 8 8 9 9 9 9 9 9 9 8 8 8 8 7 7 7 8 7 7 6 7 7 7 7 7 7 7
7 7 7 7 8 8 8 7 7 7 7 7 7 7 7 8 8 8 8 8 8 8 9 8 8 8 8 8 8 7 7 6 6 6 6 6 6 6 6 6 6 6 6 6
6 7 7 7 7 7 7 6 6 6 7 6 6 6 7 7 7 7 7 7 7 8 8 7 8 8 8 7 7 7 7 7 7 6 6 6 6 6 6 6 6 6 7 7
6 6 6 6 6 6 6 6 6 6 6 5 5 5 5 6 6 6 6 7 7 7 7 7 7 7 6 6 6 6 6 6 6 6 6 6 6 6 6 6 6 6 6 6
6 6 6 6 6 5 5 5 4 4 5 5 5 5 4 5 5 5 6 6 6 6 5 6 6 6 6 5 5 5 5 6 6 6 6 6 6 5 5 5 5 5 6 6
6 6 6 6 5 5 5 4 4 4 4 4 4 4 4 4 4 5 5 5 5 4 4 5 5 5 5 5 5 5 5 5 5 5 5 4 4 4 4 4 4 4 4 4

GFSCGP_700_temp_141.txt.gz
Temp
9 9 10 11 11 11 10 10 10 9 9 10 9 9 9 8 9 8 9 9 9 9 8 8 8 8 8 9 9 8 8 8 9 8 8 8 8 8 8 8 8 8 8 8
10 9 10 10 10 10 10 10 10 10 9 9 8 9 9 8 9 8 9 9 9 9 8 8 9 8 8 8 8 9 8 8 8 8 7 7 8 8 8 8 8 8 8 8
9 9 9 10 10 10 10 10 10 9 9 9 8 8 8 8 8 8 9 9 9 9 9 9 9 9 8 8 8 9 9 9 8 8 8 7 7 8 8 8 8 8 8 8
8 9 9 9 10 10 10 10 10 9 9 8 8 8 9 8 8 8 9 9 9 9 9 9 9 9 8 8 8 8 9 9 9 8 7 8 7 8 8 8 8 8 8 8
9 9 9 9 10 11 10 10 11 9 8 9 9 8 9 8 8 9 10 10 10 9 9 9 9 9 8 9 8 8 8 9 9 8 7 7 8 8 8 7 8 8 8 8
9 9 9 10 10 10 11 10 10 10 9 9 9 8 10 11 12 11 10 10 10 10 9 9 9 8 9 9 9 9 9 9 9 9 8 8 8 8 7 8 8 8 8 8
9 9 10 10 10 10 10 11 10 11 10 11 9 8 12 11 11 10 11 11 11 10 10 9 9 9 9 9 9 9 9 9 9 9 8 8 9 8 8 8 8 8 8 8
9 10 11 10 10 11 10 11 12 11 11 12 9 8 12 12 12 11 10 10 11 10 10 10 10 9 9 9 9 9 9 9 9 9 9 9 9 8 8 8 8 8 8 9
9 10 11 11 11 11 9 10 10 10 9 10 11 11 11 11 11 11 11 10 10 10 10 10 10 10 9 9 9 9 9 9 9 9 9 9 9 9 8 8 8 8 9 9
10 10 10 11 10 10 11 10 10 10 11 11 12 10 10 10 10 11 11 11 9 9 9 10 10 10 9 9 9 9 9 9 9 9 9 9 9 9 8 8 8 8 8 8
10 10 10 10 9 10 10 10 11 11 11 11 12 11 11 11 11 11 12 10 10 10 10 9 9 9 9 9 9 9 8 8 9 9 9 9 9 9 9 9 9 9 9 9
10 10 10 9 10 10 10 10 11 12 10 11 10 11 11 11 12 12 12 11 11 10 10 10 10 9 8 8 9 9 8 8 8 8 9 8 9 9 9 9 9 9 9 9
10 10 10 10 9 10 9 10 11 12 11 11 12 10 11 10 11 11 11 11 12 12 11 10 10 9 9 9 9 9 8 8 8 8 8 9 9 9 9 9 9 9 9 9
10 10 11 12 10 10 9 10 11 11 12 13 13 11 9 10 10 11 11 11 11 11 10 10 10 10 9 9 9 9 8 8 8 8 8 8 8 8 9 9 9 9 9 9
9 9 10 9 10 10 9 10 11 11 12 12 13 13 10 10 11 11 11 11 11 11 11 11 10 10 10 9 8 8 8 8 8 8 8 8 8 8 9 9 9 8 8 9
9 9 9 9 8 9 8 10 10 10 11 10 11 11 11 11 11 11 11 11 11 11 11 11 11 10 10 10 9 8 9 9 8 8 8 8 8 8 8 8 8 8 8 8
8 8 9 8 8 8 8 9 10 10 10 10 8 10 10 10 10 10 11 11 12 12 12 11 11 11 10 10 10 9 9 8 8 8 8 8 8 8 7 8 8 8 8 8
8 8 8 8 8 9 8 8 9 10 9 9 10 9 9 9 10 10 11 11 11 11 11 11 10 10 10 10 9 10 9 8 8 8 8 8 8 8 8 8 8 8 8 8
8 8 8 7 8 8 7 7 8 9 8 8 8 9 9 9 9 10 10 10 10 10 10 10 10 10 10 9 9 8 8 8 8 7 7 7 7 7 8 7 7 7 7 6
9 9 9 8 8 9 8 8 8 8 8 8 9 9 9 9 8 8 9 9 9 9 9 10 10 10 10 8 7 7 8 8 8 7 8 7 8 7 7 6 7 7 6 5
8 8 8 8 8 8 8 7 7 8 8 8 8 8 8 8 8 8 8 8 9 9 9 9 9 9 9 9 8 8 8 8 7 7 7 6 7 7 7 7 7 7 6 6
8 8 8 8 8 8 7 7 7 7 8 7 7 7 8 8 8 8 8 8 8 8 8 8 9 8 8 8 8 8 8 7 7 6 7 7 6 5 6 7 7 6 7 7
7 7 7 7 7 7 7 7 7 7 7 7 7 7 7 7 7 7 7 7 7 7 7 7 7 8 8 8 7 7 7 7 7 6 6 6 6 6 6 6 6 6 7 7
7 6 6 6 6 6 6 6 6 6 6 6 6 6 6 6 6 6 7 7 7 7 7 7 7 7 7 7 7 6 6 6 6 5 5 5 5 6 5 6 6 6 6 6
6 6 6 6 6 6 6 5 5 5 5 5 5 5 5 5 5 5 6 6 6 7 7 7 6 6 6 6 6 6 6 5 5 5 5 5 5 5 5 5 5 5 5 5
7 7 6 6 6 5 5 5 4 5 4 4 4 4 4 4 4 4 5 5 5 5 5 5 5 5 5 5 5 5 5 5 5 5 5 4 4 3 4 4 4 5 5 5

GFSCGP_700_temp_144.txt.gz
Temp
10 10 11 12 12 12 12 12 11 10 10 9 9 9 8 8 8 9 8 8 8 8 7 8 9 9 9 9 9 9 9 9 9 8 8 8 8 9 8 8 8 9 9 9
9 11 12 11 11 11 12 12 11 10 10 10 8 7 8 8 9 8 8 8 9 8 8 7 9 9 9 9 9 9 9 9 9 8 8 8 8 8 8 8 8 9 9 9
11 12 10 10 11 11 12 13 12 11 10 9 9 8 8 8 8 8 9 8 8 8 8 7 9 9 9 9 9 9 9 9 9 8 8 8 8 8 8 8 8 8 9 9
11 10 10 11 11 12 13 11 11 10 10 10 9 11 10 9 10 10 9 9 8 8 8 8 8 8 8 8 9 10 9 9 9 9 8 8 7 7 8 8 8 8 8 9
11 10 10 11 11 11 13 11 11 10 11 11 10 8 9 10 8 9 9 9 8 9 8 8 8 8 8 8 9 9 9 9 9 9 9 8 8 8 8 8 8 8 8 8
10 9 10 11 11 11 11 11 11 12 12 14 12 10 11 11 11 10 9 10 10 9 9 9 8 8 7 8 9 9 9 9 9 10 9 8 8 8 8 8 8 9 9 9
10 10 10 10 11 11 11 12 14 15 14 15 12 11 12 10 11 11 10 10 10 8 9 9 8 8 8 9 9 9 9 9 9 9 9 9 9 8 9 9 8 7 7 9
12 12 11 10 11 12 11 13 15 14 16 14 12 13 12 11 11 9 10 10 9 10 9 9 8 9 9 9 9 9 9 9 9 9 9 9 9 9 8 8 6 8 7 8
12 12 11 11 11 12 12 12 13 13 14 15 15 13 10 10 11 10 10 10 10 10 9 8 9 9 9 9 9 9 9 9 9 9 9 9 9 9 9 9 8 8 8 9
11 12 11 11 11 11 12 12 13 13 14 15 15 14 11 10 11 11 9 10 10 10 10 9 9 9 9 9 9 9 9 9 9 9 9 9 9 9 9 9 9 9 9 9
11 11 11 11 11 12 11 12 12 11 14 15 15 13 10 11 11 10 11 9 10 9 10 10 10 10 9 9 9 9 9 9 9 9 9 9 9 9 9 9 9 9 9 9
10 12 13 12 11 11 12 12 13 13 13 13 13 11 9 10 11 11 11 9 9 9 9 9 10 9 9 9 9 8 9 9 9 8 9 9 9 9 9 9 9 9 9 9
10 12 12 12 11 10 11 11 12 11 12 12 12 11 9 10 11 11 11 10 10 9 9 10 10 9 9 9 9 8 8 8 8 8 9 9 9 9 9 9 9 9 9 9
10 11 11 7 11 12 10 10 11 12 12 12 12 11 10 10 12 11 11 11 11 10 10 9 9 9 9 9 9 8 8 8 8 8 8 9 9 9 9 9 9 9 9 9
10 10 11 10 10 10 10 10 10 11 12 12 12 11 9 11 10 10 10 11 11 11 11 10 10 10 9 9 8 8 8 8 8 8 8 9 9 9 9 9 9 9 9 9
10 10 10 9 9 9 10 10 9 10 11 10 10 8 10 10 10 10 10 10 11 11 11 10 10 9 8 8 8 8 8 8 8 8 8 8 8 8 8 8 8 9 9 9
9 10 10 11 9 9 8 8 8 9 9 10 10 10 11 10 10 10 11 11 11 11 11 10 11 11 11 10 9 9 9 8 8 8 8 8 8 8 8 8 8 8 8 9
8 8 9 10 9 11 8 9 9 8 8 10 10 10 10 10 10 10 10 11 11 11 11 11 10 10 10 11 10 9 10 8 8 8 8 7 7 8 8 7 7 7 8 8
8 8 9 9 10 10 8 8 8 9 8 7 9 9 9 10 9 9 10 9 9 10 10 10 10 10 10 10 10 10 9 9 9 9 8 8 7 7 8 7 7 7 7 7
8 8 9 9 9 10 8 8 8 8 9 7 8 9 9 9 9 9 9 9 9 9 9 9 9 10 10 9 9 9 9 8 9 8 8 8 8 8 8 8 7 7 7 7
9 9 9 9 10 9 9 8 8 8 8 9 8 8 8 8 9 8 8 8 9 9 9 9 9 9 9 9 9 9 8 8 8 8 7 7 7 7 7 7 6 6 6 7
9 9 10 9 9 10 8 8 8 7 8 8 8 8 7 8 8 7 8 8 8 9 9 9 9 9 9 8 8 8 8 8 8 7 7 7 7 7 7 6 6 5 6 7
8 8 8 8 8 8 8 8 7 7 8 8 8 7 7 7 7 7 7 7 8 8 8 8 9 9 8 8 8 8 8 8 8 7 7 7 6 7 7 6 6 6 6 6
7 7 7 7 7 7 7 7 7 7 7 7 7 6 6 6 6 6 6 6 7 7 7 7 7 8 7 8 8 7 7 7 7 6 6 6 5 5 6 6 7 7 6 6
8 7 6 6 6 6 6 7 6 6 6 6 6 6 5 5 5 5 6 6 6 6 7 7 7 7 7 7 7 7 6 6 5 5 5 5 5 5 6 5 5 5 5 5
7 7 7 8 7 6 6 6 6 6 6 6 5 5 4 5 5 5 5 5 6 6 6 6 6 6 6 6 6 6 5 5 5 5 5 5 5 5 4 4 5 4 5 5

GFSCGP_700_temp_147.txt.gz
Temp
11 12 13 15 15 14 14 13 11 11 11 8 9 9 9 8 9 9 9 9 9 9 9 8 8 8 7 8 9 9 9 9 9 9 9 7 8 7 6 7 8 8 9 9
12 13 14 14 14 14 15 14 11 11 9 9 8 9 9 10 10 9 9 9 8 9 9 8 8 8 8 7 9 9 9 9 9 8 6 8 7 8 6 7 8 9 9 9
13 14 14 13 13 14 15 16 13 12 10 10 10 9 9 8 8 9 10 8 9 9 9 9 8 8 8 7 9 9 9 9 9 8 9 9 9 8 8 9 8 9 9 9
13 14 13 13 13 14 15 15 14 14 12 12 11 12 9 8 8 8 9 9 9 9 8 9 9 8 8 7 9 10 10 9 9 8 9 9 9 8 7 8 8 9 9 9
13 13 12 13 14 14 15 13 14 13 14 14 12 12 11 9 8 9 9 9 8 9 9 9 9 8 8 8 7 10 10 10 10 10 10 9 9 8 7 7 9 8 9 9
13 12 12 13 13 13 14 14 14 14 15 17 14 14 13 11 10 9 9 10 9 8 9 9 8 8 8 8 7 8 10 10 10 10 9 9 9 8 6 7 7 8 8 9
12 12 12 12 13 13 13 14 16 17 17 17 14 15 14 12 11 10 10 8 10 9 9 9 9 9 8 8 8 7 10 10 10 10 10 9 9 9 9 8 7 6 7 7
14 14 13 13 13 14 14 15 16 13 12 17 13 15 12 11 11 10 10 10 9 10 9 9 10 9 9 8 8 8 10 9 10 10 10 10 9 9 9 9 9 8 8 7
15 14 13 13 13 13 14 14 15 13 15 16 16 12 12 11 10 10 9 9 10 10 10 10 10 9 9 9 8 8 9 9 9 9 9 9 9 9 8 8 8 8 7 8
13 14 14 13 13 13 14 13 13 13 13 13 16 12 11 10 9 10 10 9 9 9 9 9 9 9 10 9 8 7 8 9 9 9 9 9 9 9 9 9 9 9 8 9
13 13 13 13 13 14 14 13 13 14 13 13 14 11 10 10 10 10 9 10 9 9 9 9 9 9 9 9 10 8 8 9 9 9 9 9 9 9 10 10 9 9 9 9
13 13 14 13 13 14 14 14 15 16 12 12 12 11 9 8 8 10 9 9 10 9 9 10 9 9 8 9 8 9 9 9 9 8 9 9 9 9 9 9 10 9 9 9
12 13 14 11 10 13 13 13 13 10 11 10 11 11 10 10 8 9 9 9 9 9 9 9 10 9 10 10 9 10 9 9 8 8 9 9 9 9 9 9 9 9 9 9
11 12 11 8 8 8 10 13 10 8 9 10 10 10 9 9 8 9 9 10 9 9 9 8 8 9 9 8 9 9 8 8 8 9 8 9 9 9 9 9 9 9 9 9
11 12 11 9 10 9 9 11 11 10 7 8 9 12 11 10 10 9 10 9 9 8 9 9 8 8 9 8 9 9 8 8 8 8 10 9 9 9 8 9 9 9 9 9
11 11 9 9 10 9 11 12 10 11 10 11 11 11 11 11 10 9 11 10 10 10 8 8 9 8 8 8 8 7 8 9 8 8 8 9 8 8 8 8 8 8 8 8
11 11 11 12 10 8 12 12 10 10 10 10 12 11 12 11 11 10 10 9 9 9 9 10 10 9 9 9 9 8 8 8 8 8 8 8 8 9 8 8 8 8 8 8
10 9 10 9 7 4 10 10 10 9 8 10 9 11 12 12 11 10 10 10 10 10 9 9 9 9 9 9 9 9 8 9 8 7 8 8 8 8 8 8 8 8 8 8
10 9 9 11 10 8 10 9 9 9 9 8 8 9 10 10 10 10 9 10 10 9 9 9 9 9 9 8 9 9 9 9 9 9 9 8 8 8 8 8 8 8 8 8
10 10 9 8 9 11 7 9 9 10 7 8 8 9 9 9 8 9 9 9 9 8 9 9 9 9 9 9 9 9 9 9 9 8 8 8 8 8 8 8 7 7 7 7
10 10 9 10 11 8 8 9 9 10 9 6 8 7 8 8 8 8 9 9 8 9 9 9 9 9 9 9 9 10 9 9 9 9 9 8 8 8 8 8 7 7 6 6
9 9 11 11 11 11 9 9 9 8 8 7 7 8 7 8 8 8 8 9 9 9 9 9 9 9 9 9 9 9 8 9 8 8 8 8 7 7 7 7 7 7 7 6
9 10 9 10 8 8 8 9 8 7 7 7 7 7 7 8 8 8 8 8 8 8 8 9 9 8 8 8 8 8 8 8 8 8 7 7 7 7 7 7 7 6 7 7
9 8 9 9 9 8 7 8 8 8 7 7 7 6 6 7 8 7 7 7 7 7 7 8 8 8 8 8 8 8 8 8 8 8 7 7 7 7 7 7 7 7 7 6
9 8 8 8 7 7 7 7 6 7 7 6 6 6 5 5 5 6 6 6 6 7 7 7 7 7 7 8 7 7 7 7 7 6 5 5 5 5 6 6 6 6 6 6
9 8 8 10 8 7 8 6 6 7 7 6 5 5 5 4 4 5 5 5 6 6 6 6 7 7 7 7 7 7 7 7 6 6 6 6 6 5 5 5 5 4 4 4

GFSCGP_700_temp_150.txt.gz
Temp
12 12 13 15 16 14 13 12 11 10 11 9 8 10 10 9 9 9 9 10 9 10 9 8 8 8 7 9 9 9 10 10 10 9 9 8 8 8 8 8 8 8 10 9
13 13 14 15 16 16 15 12 11 10 10 10 9 10 10 9 9 9 9 10 9 9 9 8 8 9 8 9 9 9 10 10 10 10 9 8 8 8 9 8 8 9 10 10
14 15 15 15 16 15 16 16 14 12 11 11 10 9 10 10 10 10 9 10 9 9 9 9 9 8 8 9 9 9 10 9 9 9 10 8 10 8 8 10 9 9 10 10
14 15 15 15 15 15 16 16 14 14 13 13 12 13 11 10 11 11 10 10 9 9 9 9 9 8 8 8 10 10 10 9 10 10 10 9 9 8 9 10 10 10 10 10
14 14 14 14 15 15 15 15 15 15 15 15 14 13 12 11 11 11 10 9 9 8 8 8 9 9 8 8 9 11 10 10 10 10 10 9 9 7 8 8 9 10 10 10
13 14 14 14 14 15 15 15 15 16 16 17 17 15 13 11 13 12 11 10 9 9 9 9 9 9 9 8 9 10 10 10 10 10 10 9 10 9 9 9 9 10 10 10
14 14 13 14 14 15 15 15 16 17 17 17 14 16 15 13 12 12 11 11 8 10 9 8 10 8 8 9 9 9 10 10 10 11 10 10 9 9 10 10 9 9 9 8
16 16 14 14 14 15 15 15 16 15 15 15 14 15 12 13 13 12 10 10 9 10 9 9 9 10 9 9 8 8 10 10 10 11 11 10 10 9 10 9 9 9 9 7
15 16 15 14 14 14 15 15 16 15 14 15 14 11 11 11 11 12 11 11 10 11 9 9 9 9 9 9 9 9 9 10 10 10 11 11 10 10 10 9 9 9 9 8
14 15 15 15 14 14 14 15 15 15 14 15 12 9 11 9 10 10 10 10 10 10 9 10 8 9 9 10 8 8 9 9 10 11 11 11 11 11 10 10 10 10 9 7
13 14 15 15 15 15 15 15 15 14 13 12 11 8 7 9 9 9 10 10 11 10 9 10 10 8 10 9 9 8 10 10 10 11 11 10 10 10 10 10 10 10 9 9
14 14 15 15 14 14 14 15 16 15 13 12 13 9 9 8 9 10 10 10 10 10 10 10 8 8 8 8 9 9 9 9 10 10 10 10 10 11 10 9 9 9 9 9
12 13 14 14 14 14 14 12 12 12 12 11 12 9 9 8 9 10 10 10 10 11 10 9 8 9 9 9 9 8 10 9 9 10 11 10 10 10 10 10 10 10 10 10
12 12 13 11 11 11 10 10 10 10 10 9 10 9 9 9 9 9 9 10 10 9 9 8 9 9 8 8 9 8 9 8 9 9 8 8 9 9 9 9 9 10 10 9
12 12 11 9 8 10 11 7 8 9 8 9 11 8 9 9 10 9 8 9 9 9 9 9 8 9 9 8 8 6 9 9 9 8 9 8 10 8 9 9 8 9 9 9
11 12 11 10 9 8 9 7 8 9 8 9 10 8 7 10 11 10 10 9 8 8 8 9 7 7 8 9 8 8 8 9 9 8 8 8 8 10 8 8 8 9 9 9
11 11 11 9 7 7 7 7 8 8 9 9 9 9 6 10 10 11 10 10 10 9 9 10 9 8 9 10 9 9 9 9 8 8 8 8 8 8 8 8 8 8 8 8
12 11 11 7 7 9 10 10 10 9 8 8 10 9 7 10 11 10 10 10 10 10 9 9 9 9 10 9 10 9 9 9 8 8 9 9 9 8 8 8 8 9 9 8
12 11 11 10 9 8 8 9 10 10 9 8 8 7 7 9 9 9 9 9 10 10 10 9 9 9 9 9 9 9 9 9 9 9 9 9 8 8 8 8 8 8 8 8
11 11 11 11 10 9 8 9 10 10 7 7 7 7 7 8 8 7 9 9 9 9 9 9 9 9 9 9 8 8 9 8 9 9 9 8 8 8 8 8 8 8 8 8
10 10 10 11 11 10 9 9 9 10 8 7 8 6 6 7 8 8 8 8 8 9 9 9 9 9 9 9 9 9 9 9 8 8 8 8 9 8 8 7 8 8 8 8
8 9 9 9 11 10 9 9 8 7 7 8 6 6 6 8 8 9 9 9 9 9 9 9 9 9 10 9 9 9 9 8 9 9 9 9 8 8 7 7 7 7 8 8
10 10 9 10 8 9 9 8 8 8 8 5 4 6 8 8 8 8 8 8 8 8 8 8 9 9 9 9 9 9 9 9 8 8 8 8 8 8 7 7 7 7 7 7
10 10 10 9 10 9 9 8 8 8 8 7 7 7 6 6 7 8 8 8 8 7 8 8 8 8 8 8 8 8 8 8 8 8 8 7 7 7 7 7 7 7 7 7
10 9 9 9 9 8 8 8 7 7 7 7 7 7 6 6 5 5 6 6 6 7 7 7 7 7 8 8 8 8 8 8 8 7 7 7 7 7 7 7 7 7 7 7
10 10 10 9 9 9 8 8 7 6 7 7 6 6 6 5 5 5 5 5 6 6 6 6 7 7 7 7 7 7 7 7 7 7 7 6 6 6 6 6 7 6 6 6